GFSWCAN_prec_kuchsnow_309.txt.gz
Snowfall_Accumulation
0.0 0.0 0.0 0.0 0.0 0.0 0.0 0.0 0.0 0.0 0.0 0.0 0.0 0.0 0.0 0.0 0.0 0.0 0.0 0.0 0.0 10.3 1.5 0.2 0.5 1.4 2.2 4.8 10.9 7.1 11.4 5.8 5.0 7.0 7.4 2.4 2.2 1.6 0.9 0.6 1.0 2.3 6.6 3.8 5.7 10.0 3.8 0.0 0.0 1.6 3.1 0.7 0.3 1.1
0.0 0.0 0.0 0.0 0.0 0.0 0.0 0.0 0.0 0.0 0.0 0.0 0.0 0.0 0.0 0.0 0.0 0.0 0.0 0.0 0.0 6.1 6.2 1.3 0.6 0.4 0.1 0.5 4.2 9.2 6.8 3.1 5.0 9.0 6.3 9.9 8.4 3.5 1.3 4.2 0.0 4.2 3.3 6.7 6.2 2.2 0.3 0.4 1.2 0.9 1.6 4.0 1.7 2.1
0.0 0.0 0.0 0.0 0.0 0.0 0.0 0.0 0.0 0.0 0.0 0.0 0.0 0.0 0.0 0.0 0.0 0.0 0.0 0.4 1.3 13.5 7.6 4.4 2.1 0.5 0.2 0.1 1.3 10.2 6.2 2.4 6.2 5.3 14.9 16.8 15.8 3.7 6.1 2.2 1.6 0.4 0.9 5.4 3.1 0.0 0.6 1.8 1.9 0.8 1.8 1.9 0.6 0.8
0.0 0.0 0.0 0.0 0.0 0.0 0.0 0.0 0.0 0.0 0.0 0.0 0.0 0.0 0.0 0.0 0.0 0.0 0.1 1.0 2.6 12.5 30.7 3.0 0.4 0.2 0.1 0.9 1.8 3.5 4.1 4.5 7.3 9.9 22.3 23.1 13.4 2.4 3.4 1.6 2.6 2.8 3.2 4.3 5.1 0.8 1.4 1.3 0.6 0.5 1.3 0.9 0.3 0.1
0.0 0.0 0.0 0.0 0.0 0.0 0.0 0.0 0.0 0.0 0.0 0.0 0.0 0.0 0.0 0.0 0.0 0.0 2.7 2.9 1.5 4.9 19.3 3.9 1.0 0.6 0.3 0.9 2.0 3.1 4.0 7.5 9.9 14.8 18.0 11.9 1.4 5.7 5.9 6.0 7.0 4.5 9.0 12.7 8.0 2.3 7.9 2.3 1.1 0.4 1.6 1.3 1.1 1.9
0.0 0.0 0.0 0.0 0.0 0.0 0.0 0.0 0.0 0.0 0.0 0.0 0.0 0.0 0.0 0.0 0.0 1.3 9.9 2.8 1.5 1.8 29.2 33.4 2.8 1.0 0.3 0.3 1.5 2.4 3.4 5.4 7.0 10.8 9.4 3.9 3.2 10.2 21.7 9.7 2.0 1.8 2.4 6.7 7.2 2.6 1.8 1.5 0.9 0.0 1.4 1.3 2.2 3.4
0.0 0.0 0.0 0.0 0.0 0.0 0.0 0.0 0.0 0.0 0.0 0.0 0.0 0.0 0.0 0.0 0.9 6.8 9.6 1.6 0.6 2.8 34.5 42.8 13.1 1.4 1.1 1.3 1.8 1.7 2.6 3.5 4.9 9.1 8.9 3.7 4.5 15.6 26.3 9.9 1.0 1.1 0.5 0.4 1.6 4.1 1.3 0.7 2.0 0.6 1.3 1.1 0.7 0.4
0.0 0.0 0.0 0.0 0.0 0.0 0.0 0.0 0.0 0.0 0.0 0.0 0.0 0.0 0.0 0.0 2.7 7.7 4.4 1.3 2.3 9.5 17.3 43.5 17.8 2.3 0.9 1.8 3.6 2.0 2.6 3.7 5.4 6.0 4.9 4.9 5.4 10.4 19.0 0.5 0.4 0.9 0.0 0.3 0.4 0.7 2.2 0.4 0.2 0.8 0.3 0.8 0.7 0.2
0.0 0.0 0.0 0.0 0.0 0.0 0.0 0.0 0.0 0.0 0.0 0.0 0.0 0.0 2.7 5.9 8.4 5.9 1.3 2.7 7.8 12.2 47.2 25.9 12.8 8.6 1.5 2.2 3.0 4.1 3.6 14.7 5.8 10.3 8.7 6.3 8.1 12.8 6.6 4.6 2.4 1.9 3.6 3.0 0.2 0.0 0.0 0.3 0.4 0.4 0.6 1.0 1.7 0.9
0.0 0.0 0.0 0.0 0.0 0.0 0.0 0.0 0.0 0.0 0.0 0.0 1.8 12.6 34.7 8.3 1.5 2.4 6.6 9.5 15.5 26.0 21.6 20.8 5.0 10.3 2.6 5.7 12.0 12.2 12.2 14.1 18.1 10.1 7.6 12.0 6.2 1.5 1.5 1.7 3.3 3.3 3.2 3.3 4.7 4.8 3.1 2.4 1.2 1.1 2.0 2.5 4.3 3.8
0.0 0.0 0.0 0.0 0.0 0.0 0.0 0.0 0.0 0.0 0.0 5.1 24.2 29.3 19.8 3.1 10.9 21.2 43.3 42.5 35.2 40.9 19.9 11.0 9.5 11.3 7.0 14.6 15.1 13.4 18.7 14.2 20.7 7.4 10.6 10.8 4.8 1.1 0.2 0.5 0.3 1.1 2.1 3.2 5.5 6.1 6.7 8.3 7.1 4.9 2.3 2.0 2.0 2.9
0.0 0.0 0.0 0.0 0.0 0.0 0.0 0.0 0.0 6.1 12.0 8.9 11.8 13.6 16.5 24.0 38.4 50.9 39.3 19.7 22.7 22.0 14.5 10.5 6.0 6.5 10.4 9.6 17.7 19.3 23.6 17.1 18.4 3.7 13.8 7.0 1.3 0.4 0.4 0.8 1.1 1.5 2.6 3.7 4.9 7.0 6.2 5.9 5.0 4.4 4.3 4.6 4.3 4.4
0.0 0.0 0.0 0.0 0.0 0.0 0.0 0.0 0.0 0.0 2.4 14.1 25.3 43.5 36.4 32.0 43.0 29.1 14.8 9.2 12.5 8.1 6.6 7.7 10.6 7.8 9.0 10.2 20.8 20.6 27.7 20.4 6.1 14.6 3.9 2.3 0.1 0.3 1.3 1.4 1.1 0.4 1.4 2.2 3.8 4.1 4.3 2.9 2.1 3.6 3.5 3.7 4.1 4.2
0.0 0.0 0.0 0.0 0.0 0.0 0.0 0.0 0.0 0.9 17.8 41.4 51.1 56.5 35.5 25.3 10.2 5.2 5.4 6.6 4.7 6.4 6.9 5.5 10.5 10.1 8.3 15.6 13.2 25.8 9.1 12.0 16.2 7.8 2.3 1.0 1.8 2.2 1.7 1.4 2.4 1.8 2.4 3.9 6.1 5.1 3.6 4.0 3.7 3.3 5.2 5.9 6.2 8.0
0.0 0.0 0.0 0.0 0.0 0.0 0.0 0.0 1.6 10.1 25.4 53.2 42.3 35.6 16.5 6.7 5.2 6.4 4.8 5.2 7.3 6.4 7.2 7.7 7.9 7.7 11.6 20.7 15.8 14.7 21.0 12.1 4.3 3.1 2.1 3.6 4.1 4.4 4.9 4.5 4.8 4.1 5.0 7.0 9.3 7.1 6.6 4.6 4.5 6.0 8.3 7.4 6.7 7.3
0.0 0.0 0.0 0.0 0.0 0.0 0.1 4.1 16.7 19.7 36.8 42.7 35.8 19.9 6.4 4.2 6.8 7.9 6.9 9.3 7.9 7.9 7.9 13.4 17.0 19.2 21.4 20.8 20.8 10.3 9.7 5.6 5.0 6.1 6.5 6.4 5.9 5.8 6.4 8.7 11.3 11.8 12.9 12.2 15.5 17.0 13.6 11.0 11.6 11.9 8.8 9.1 8.8 8.3
0.0 0.0 0.0 0.0 0.0 0.8 1.7 16.6 29.0 51.4 51.6 43.3 17.8 7.4 8.9 9.8 10.8 12.9 10.1 10.7 7.2 12.6 15.1 19.8 28.8 17.7 11.4 14.8 6.8 2.9 4.8 4.8 6.6 7.9 8.7 7.5 8.2 8.6 8.2 8.7 12.7 14.6 17.6 14.7 15.7 16.7 18.9 15.9 9.6 4.8 7.8 9.1 7.4 7.0
1.1 0.0 0.0 0.0 2.0 7.2 26.5 21.1 47.2 52.0 47.3 19.4 8.9 6.2 6.9 8.6 9.8 6.9 7.0 7.4 11.5 14.2 14.3 22.3 14.2 18.3 15.7 9.6 5.2 4.8 5.4 5.0 6.6 8.4 10.8 10.5 9.8 11.0 10.3 11.8 12.2 11.7 12.5 11.4 9.4 7.7 6.3 4.3 4.7 6.6 6.8 5.8 4.5 4.6
0.0 0.0 0.0 0.1 3.0 13.3 50.4 55.8 34.3 44.0 17.0 7.8 7.6 6.7 5.6 6.4 5.6 6.2 6.5 8.7 12.6 10.7 12.6 14.8 20.6 14.9 8.0 5.9 6.3 6.1 6.7 7.7 9.1 9.2 10.3 9.4 8.1 7.5 6.4 5.4 5.0 4.4 5.7 5.2 4.0 5.4 4.4 3.3 4.0 3.2 2.9 1.5 1.2 1.1
0.0 0.6 2.3 4.5 6.2 36.1 52.4 43.2 23.0 15.5 9.6 7.7 7.3 6.0 4.3 7.5 6.6 4.4 6.1 7.7 9.3 11.2 19.2 20.2 10.3 10.1 12.1 11.8 11.0 10.9 11.7 11.3 8.0 5.8 6.4 5.2 3.1 1.5 0.7 0.4 0.4 0.1 0.1 0.4 0.4 0.5 0.4 0.3 0.2 0.3 0.5 0.5 0.8 0.9
7.2 9.4 8.9 7.0 16.3 42.2 38.3 27.2 18.5 11.4 7.5 6.3 6.7 4.5 6.5 5.0 5.6 5.9 6.3 6.0 13.7 18.3 15.0 11.8 11.6 12.5 11.6 12.5 13.8 12.1 11.2 6.0 3.8 2.9 2.3 1.0 0.4 0.2 0.1 0.1 0.1 0.1 0.1 0.0 0.0 0.0 0.2 0.9 0.8 0.0 0.0 0.3 0.4 0.5
15.8 4.9 24.7 12.6 64.7 62.3 47.0 22.9 12.9 8.6 6.7 8.2 5.7 5.1 7.5 7.2 5.2 6.9 9.9 14.7 18.4 12.4 11.8 11.3 10.6 11.2 10.1 10.5 8.5 5.3 2.2 1.1 0.8 0.6 0.5 0.5 0.6 0.2 0.0 0.2 0.2 0.2 0.1 0.4 0.3 0.7 0.6 0.9 1.0 0.6 0.3 0.3 0.3 0.4
3.5 11.7 42.9 47.4 61.2 56.3 43.9 14.4 14.4 10.7 8.7 7.4 6.7 7.8 10.1 8.7 5.5 5.9 13.7 13.6 12.0 11.5 10.4 8.1 7.5 5.3 4.6 3.5 1.4 1.1 0.8 0.2 0.1 0.2 0.2 0.2 0.3 0.3 0.2 0.1 0.2 0.3 0.0 0.2 0.2 0.4 0.5 0.4 0.4 0.9 0.5 0.6 0.4 0.2
4.0 48.9 59.4 58.3 44.6 44.4 27.8 22.8 12.8 7.0 8.7 8.5 9.4 9.5 9.1 7.4 7.7 9.3 10.3 5.7 8.4 10.5 10.1 10.5 7.3 4.3 3.0 2.9 2.8 2.5 1.2 0.9 0.4 0.3 0.7 0.5 0.2 0.0 0.3 0.1 0.1 0.1 0.8 0.2 0.2 0.1 0.3 0.2 0.6 0.5 0.4 0.8 0.9 0.5
90.2 94.9 54.8 56.8 33.6 20.0 11.9 9.7 7.1 5.0 3.8 2.9 6.1 7.2 7.8 7.5 8.7 8.2 4.7 5.5 8.0 9.3 10.7 9.8 7.9 5.7 4.7 3.4 2.4 1.7 1.9 1.7 2.0 0.7 1.8 1.7 0.5 0.1 0.1 0.1 0.1 0.0 0.0 0.2 0.5 0.7 0.5 0.4 0.9 0.8 0.8 1.9 2.7 2.4
76.6 47.3 36.7 16.1 8.1 3.3 2.5 1.4 1.5 1.6 1.7 3.0 5.2 4.9 5.9 6.4 8.0 7.9 3.9 5.3 9.0 10.9 10.2 8.1 5.6 3.4 2.5 2.2 2.2 2.1 1.5 1.2 1.3 2.2 1.8 2.8 1.9 2.6 1.1 0.8 0.6 0.2 0.2 1.9 3.1 3.0 1.6 1.5 1.2 0.9 1.0 1.9 4.2 4.0
44.5 25.8 9.8 2.4 0.5 0.4 0.9 0.9 1.2 1.9 3.9 4.5 4.6 4.7 5.3 11.7 6.8 4.6 5.0 7.0 8.1 10.0 9.2 7.6 3.9 3.1 2.6 2.9 3.4 3.4 3.0 2.7 2.3 2.6 1.9 4.3 3.3 1.8 1.9 4.8 5.3 2.6 4.2 4.3 4.7 5.3 5.6 4.6 3.4 2.7 2.7 3.2 2.7 5.0
10.2 2.1 1.0 1.2 0.9 0.7 1.4 2.3 1.8 3.0 3.3 4.0 2.9 4.9 5.0 4.7 3.9 4.7 6.6 7.9 9.3 8.9 8.3 8.2 6.3 4.7 4.3 4.1 4.1 4.7 5.0 4.6 4.5 4.1 5.6 6.2 5.4 4.2 3.2 5.9 7.4 8.0 8.6 7.2 8.5 9.0 9.1 8.5 6.9 5.4 5.8 6.2 4.8 4.2
4.9 2.9 0.6 1.2 2.3 2.5 2.2 2.8 3.1 3.3 2.6 3.5 4.1 3.4 4.2 3.2 4.2 5.2 5.6 7.8 8.7 8.1 8.0 7.7 7.3 6.3 5.9 5.6 6.1 7.0 6.6 5.9 4.6 4.1 3.7 3.5 4.5 5.7 4.3 5.3 7.6 8.9 7.8 7.5 4.5 8.5 12.4 12.4 11.9 12.0 9.2 7.7 6.1 6.6
3.4 2.1 1.8 2.0 2.3 2.9 2.7 2.9 2.4 3.2 2.5 3.0 2.2 1.3 1.3 2.9 4.9 5.4 5.5 6.9 7.9 8.1 8.8 8.4 7.4 7.2 7.2 6.7 6.8 7.6 7.3 7.0 6.0 5.4 9.1 6.4 3.3 5.0 8.0 9.5 9.1 9.0 10.9 10.9 9.1 7.9 7.3 9.0 9.0 9.9 9.7 9.0 8.5 8.2
2.6 1.9 2.5 2.9 3.7 4.2 4.7 4.3 4.0 2.7 2.1 2.1 1.9 1.9 2.3 1.9 4.1 5.1 5.5 6.3 7.4 8.0 8.0 8.2 8.3 8.5 7.8 7.6 8.1 7.2 7.9 7.5 7.6 7.0 7.5 11.3 9.5 9.9 10.4 10.9 11.6 14.2 13.8 11.2 9.7 9.2 8.2 8.3 7.9 7.9 7.7 8.0 7.0 6.5
3.7 3.1 2.5 3.1 4.9 6.0 5.9 5.1 5.0 4.1 4.0 3.6 3.4 2.8 3.1 2.4 1.8 3.6 5.3 5.7 6.1 6.8 7.5 7.5 6.9 7.0 7.0 7.5 7.4 7.2 7.0 8.1 8.7 9.8 11.6 12.3 10.6 10.1 9.4 11.5 12.6 15.1 14.2 13.1 11.2 10.7 10.6 9.8 10.9 9.9 9.7 8.4 7.5 6.9
6.9 4.7 4.2 3.4 4.8 5.5 5.5 4.4 6.8 6.6 5.7 4.9 4.3 3.3 2.8 2.2 2.7 3.5 4.7 4.7 3.9 5.8 6.2 6.6 7.3 6.6 8.4 7.9 7.6 7.3 7.3 10.0 8.8 11.1 15.1 15.8 14.8 16.6 17.8 15.7 12.5 12.1 12.4 11.8 11.2 12.1 12.6 12.2 10.9 9.6 9.0 7.9 7.9 7.1

GFSWCAN_prec_kuchsnow_315.txt.gz
Snowfall_Accumulation
0.0 0.0 0.0 0.0 0.0 0.0 0.0 0.0 0.0 0.0 0.0 0.0 0.0 0.0 0.0 0.0 0.0 0.0 0.0 0.0 0.0 13.6 2.5 0.3 0.5 1.6 2.3 5.1 11.8 7.4 13.0 6.5 5.3 7.5 7.8 2.7 2.4 1.7 0.9 0.6 1.0 2.3 7.1 4.0 5.9 10.5 3.9 0.0 0.0 1.6 3.1 0.7 0.3 1.1
0.0 0.0 0.0 0.0 0.0 0.0 0.0 0.0 0.0 0.0 0.0 0.0 0.0 0.0 0.0 0.0 0.0 0.0 0.0 0.0 0.0 7.8 7.1 1.3 0.6 0.4 0.1 0.5 5.0 10.3 7.3 3.3 5.4 9.4 6.6 10.1 8.6 3.5 1.3 4.3 0.0 4.3 3.3 6.9 6.2 2.3 0.3 0.4 1.2 1.4 2.0 4.3 2.1 2.5
0.0 0.0 0.0 0.0 0.0 0.0 0.0 0.0 0.0 0.0 0.0 0.0 0.0 0.0 0.0 0.0 0.0 0.0 0.0 0.4 2.0 15.5 8.3 4.4 2.1 0.5 0.2 0.1 1.3 11.3 6.4 2.5 6.2 5.4 15.3 17.3 16.3 3.7 6.2 2.2 1.6 0.4 0.9 5.7 3.1 0.0 0.6 2.3 2.2 0.8 1.8 1.9 0.6 0.8
0.0 0.0 0.0 0.0 0.0 0.0 0.0 0.0 0.0 0.0 0.0 0.0 0.0 0.0 0.0 0.0 0.0 0.0 0.1 1.0 2.6 13.8 31.5 3.0 0.4 0.2 0.1 0.9 1.8 3.6 4.6 5.8 7.7 10.8 23.6 24.0 13.9 2.4 3.5 1.7 2.7 3.1 4.2 4.9 5.9 1.1 1.7 1.5 0.6 0.5 1.3 0.9 0.3 0.1
0.0 0.0 0.0 0.0 0.0 0.0 0.0 0.0 0.0 0.0 0.0 0.0 0.0 0.0 0.0 0.0 0.0 0.0 2.7 2.9 1.5 5.1 20.4 3.9 1.0 0.6 0.3 0.9 2.0 3.1 4.3 8.7 11.0 16.1 19.0 12.4 1.5 6.1 5.9 6.2 7.0 4.5 9.2 13.3 8.6 2.3 7.9 2.3 1.1 0.4 1.6 1.3 1.1 1.9
0.0 0.0 0.0 0.0 0.0 0.0 0.0 0.0 0.0 0.0 0.0 0.0 0.0 0.0 0.0 0.0 0.0 1.3 9.9 2.8 1.5 1.8 30.4 33.5 2.8 1.0 0.3 0.3 1.5 2.4 3.6 6.0 7.8 11.5 10.0 4.3 3.4 11.1 22.6 9.9 2.0 1.8 2.4 6.7 7.4 2.6 1.8 1.5 0.9 0.0 1.4 1.3 2.2 3.4
0.0 0.0 0.0 0.0 0.0 0.0 0.0 0.0 0.0 0.0 0.0 0.0 0.0 0.0 0.0 0.0 0.9 6.8 9.6 1.6 0.6 2.8 35.1 42.9 13.1 1.4 1.1 1.3 1.8 1.7 2.8 4.0 5.7 10.0 9.6 4.3 5.3 16.3 26.9 9.9 1.0 1.1 0.5 0.4 1.6 4.1 1.3 0.7 2.0 0.6 1.3 1.1 0.7 0.4
0.0 0.0 0.0 0.0 0.0 0.0 0.0 0.0 0.0 0.0 0.0 0.0 0.0 0.0 0.0 0.0 2.7 7.7 4.4 1.3 2.3 9.8 17.3 43.6 17.8 2.3 0.9 1.8 3.6 2.0 2.9 4.1 5.8 6.8 5.3 5.3 5.8 10.6 19.1 0.5 0.4 0.9 0.0 0.3 0.4 0.7 2.2 0.4 0.2 0.8 0.3 0.8 0.7 0.2
0.0 0.0 0.0 0.0 0.0 0.0 0.0 0.0 0.0 0.0 0.0 0.0 0.0 0.0 2.7 5.9 8.4 5.9 1.3 2.7 8.5 12.8 47.9 25.9 12.8 8.6 1.5 2.2 3.0 4.1 3.6 15.1 6.0 10.8 9.0 6.4 8.3 12.9 6.6 4.6 2.4 1.9 3.6 3.0 0.2 0.0 0.0 0.3 0.4 0.4 0.6 1.0 1.7 0.9
0.0 0.0 0.0 0.0 0.0 0.0 0.0 0.0 0.0 0.0 0.0 0.0 1.8 12.6 34.7 8.5 1.5 2.4 6.6 9.5 15.5 26.0 22.0 20.9 5.0 10.4 2.6 5.7 12.1 12.2 12.4 14.3 18.5 10.3 7.6 12.2 6.3 1.5 1.5 1.7 3.3 3.3 3.2 3.3 4.7 4.8 3.1 2.4 1.2 1.1 2.0 2.5 4.3 3.8
0.0 0.0 0.0 0.0 0.0 0.0 0.0 0.0 0.0 0.0 0.0 5.1 24.2 29.3 20.0 3.1 10.9 21.2 43.3 42.5 35.2 40.9 19.9 11.1 9.6 11.8 7.1 14.7 15.3 13.4 19.1 14.3 21.0 7.7 10.9 10.8 4.8 1.1 0.2 0.5 0.3 1.1 2.1 3.2 5.5 6.1 6.7 8.3 7.1 4.9 2.3 2.0 2.0 2.9
0.0 0.0 0.0 0.0 0.0 0.0 0.0 0.0 0.0 6.1 12.2 8.9 11.8 13.6 16.5 24.0 38.4 50.9 39.3 19.7 22.7 22.0 14.5 10.5 6.3 6.7 10.6 9.6 17.8 19.5 23.9 17.3 18.9 3.9 14.0 7.0 1.3 0.4 0.4 0.8 1.1 1.5 2.6 3.7 4.9 7.0 6.2 5.9 5.0 4.4 4.3 4.6 4.3 4.4
0.0 0.0 0.0 0.0 0.0 0.0 0.0 0.0 0.0 0.0 2.4 14.1 25.3 43.5 36.4 32.0 43.0 29.1 14.8 9.2 12.5 8.1 6.6 7.8 10.9 7.9 9.0 10.2 20.8 20.8 28.0 20.8 6.2 14.7 3.9 2.3 0.1 0.3 1.3 1.4 1.1 0.4 1.4 2.2 3.8 4.1 4.3 2.9 2.1 3.6 3.5 3.7 4.1 4.2
0.0 0.0 0.0 0.0 0.0 0.0 0.0 0.0 0.0 0.9 17.8 41.4 51.1 56.5 35.5 25.3 10.2 5.2 5.4 6.6 4.7 6.4 7.0 5.5 10.6 10.2 8.3 15.6 13.2 25.9 9.4 12.1 16.4 8.1 2.4 1.0 1.8 2.2 1.7 1.4 2.4 1.8 2.4 3.9 6.1 5.1 3.6 4.0 3.7 3.3 5.2 5.9 6.2 8.0
0.0 0.0 0.0 0.0 0.0 0.0 0.0 0.0 1.6 10.1 25.4 53.2 42.3 35.6 16.5 6.7 5.2 6.4 4.8 5.2 7.3 6.4 7.2 7.7 7.9 7.7 11.6 20.7 15.8 14.7 21.0 12.2 4.6 3.5 2.3 3.6 4.1 4.4 4.9 4.5 4.8 4.1 5.0 7.0 9.3 7.1 6.6 4.6 4.5 6.0 8.3 7.4 6.7 7.3
0.0 0.0 0.0 0.0 0.0 0.0 0.1 4.1 16.7 19.7 36.8 42.7 35.8 19.9 6.4 4.2 6.8 7.9 6.9 9.3 7.9 7.9 7.9 13.4 17.0 19.2 21.4 20.8 20.8 10.3 9.7 5.6 5.0 6.1 6.7 6.5 6.1 5.9 6.5 8.7 11.3 11.8 12.9 12.2 15.5 17.0 13.6 11.0 11.6 11.9 8.8 9.1 8.8 8.3
0.0 0.0 0.0 0.0 0.0 0.8 1.7 16.6 29.0 51.4 51.6 43.3 17.8 7.4 8.9 9.8 10.8 12.9 10.1 10.7 7.2 12.6 15.1 19.8 28.8 17.7 11.4 14.8 6.8 2.9 4.8 4.8 6.6 7.9 8.7 7.7 8.2 8.6 8.2 8.7 12.7 14.6 17.6 14.7 15.7 16.7 18.9 15.9 9.6 4.8 7.8 9.1 7.4 7.0
1.1 0.0 0.0 0.0 2.0 7.2 26.5 21.1 47.2 52.0 47.3 19.4 8.9 6.2 6.9 8.6 9.8 6.9 7.0 7.4 11.5 14.2 14.3 22.3 14.2 18.3 15.7 9.6 5.2 4.8 5.4 5.0 6.6 8.4 10.8 10.5 9.8 11.0 10.3 11.8 12.2 11.7 12.5 11.4 9.4 7.7 6.3 4.3 4.7 6.6 6.8 5.8 4.5 4.6
0.0 0.0 0.0 0.1 3.0 13.3 50.4 55.8 34.3 44.0 17.0 7.8 7.6 6.7 5.6 6.4 5.6 6.3 6.5 8.8 12.7 10.7 12.6 14.8 20.6 14.9 8.0 5.9 6.3 6.1 6.7 7.9 9.1 9.2 10.3 9.4 8.1 7.5 6.4 5.4 5.0 4.4 5.7 5.2 4.0 5.4 4.4 3.3 4.0 3.2 2.9 1.5 1.2 1.1
0.0 0.6 2.3 4.5 6.2 36.1 52.4 43.2 23.0 15.5 9.6 7.7 7.3 6.0 4.3 7.5 6.6 4.4 6.2 7.9 9.5 11.2 19.2 20.2 10.3 10.1 12.1 11.8 11.1 11.0 11.9 11.6 8.3 5.8 6.4 5.2 3.1 1.5 0.7 0.4 0.4 0.1 0.1 0.4 0.4 0.5 0.4 0.3 0.2 0.3 0.5 0.5 0.8 0.9
7.2 9.4 8.9 7.0 16.3 42.2 38.3 27.2 18.5 11.4 7.5 6.3 6.7 4.5 6.5 5.0 5.6 5.9 6.4 6.2 13.9 18.3 15.0 11.8 11.6 12.5 11.6 12.6 14.0 12.4 11.3 6.3 4.1 3.2 2.4 1.0 0.4 0.2 0.1 0.1 0.1 0.2 0.3 0.1 0.0 0.0 0.3 0.9 0.8 0.0 0.0 0.3 0.4 0.5
15.8 4.9 24.7 12.6 64.7 62.3 47.0 22.9 12.9 8.6 6.7 8.2 5.7 5.1 7.5 7.2 5.2 6.9 9.9 14.7 18.4 12.4 11.8 11.3 10.6 11.2 10.1 10.5 8.5 5.3 2.2 1.1 0.8 0.6 0.5 0.5 0.6 0.2 0.0 0.2 0.5 0.3 0.2 0.6 0.3 0.8 0.6 0.9 1.0 0.6 0.3 0.3 0.3 0.4
3.5 11.7 42.9 47.4 61.2 56.3 43.9 14.4 14.4 10.7 8.7 7.4 6.7 7.8 10.1 8.7 5.5 5.9 13.7 13.6 12.0 11.5 10.4 8.1 7.5 5.3 4.6 3.5 1.4 1.1 0.8 0.2 0.1 0.2 0.2 0.2 0.3 0.3 0.3 0.2 0.3 0.6 0.1 0.2 0.2 0.4 0.5 0.4 0.4 0.9 0.5 0.6 0.4 0.2
4.0 48.9 59.4 58.3 44.6 44.4 27.8 22.8 12.8 7.0 8.7 8.5 9.4 9.5 9.1 7.4 7.7 9.3 10.3 5.7 8.4 10.5 10.1 10.5 7.3 4.3 3.0 2.9 2.8 2.5 1.2 0.9 0.4 0.3 0.7 0.5 0.2 0.0 0.3 0.1 0.1 0.1 0.8 0.3 0.2 0.1 0.3 0.2 0.6 0.5 0.4 0.8 0.9 0.5
90.2 94.9 54.8 56.8 33.6 20.0 11.9 9.7 7.1 5.0 3.8 2.9 6.1 7.2 7.8 7.5 8.7 8.2 4.7 5.5 8.0 9.3 10.7 9.8 7.9 5.7 4.7 3.4 2.4 1.7 1.9 1.7 2.0 0.7 1.8 1.7 0.5 0.1 0.1 0.1 0.1 0.0 0.0 0.2 0.5 0.7 0.5 0.4 0.9 0.8 0.8 1.9 2.7 2.4
76.8 47.3 36.7 16.1 8.1 3.3 2.5 1.4 1.5 1.6 1.7 3.0 5.2 4.9 5.9 6.4 8.0 7.9 3.9 5.3 9.0 10.9 10.2 8.1 5.6 3.4 2.5 2.2 2.2 2.1 1.5 1.2 1.3 2.2 1.8 2.8 1.9 2.7 1.1 0.8 0.6 0.2 0.2 1.9 3.1 3.0 1.6 1.5 1.2 0.9 1.0 1.9 4.2 4.0
44.6 25.8 9.8 2.4 0.5 0.4 0.9 0.9 1.2 1.9 3.9 4.5 4.6 4.7 5.3 11.7 6.8 4.6 5.0 7.0 8.1 10.0 9.2 7.6 3.9 3.1 2.6 2.9 3.4 3.4 3.0 2.7 2.3 2.6 1.9 4.3 3.3 1.9 1.9 4.8 5.4 2.6 4.2 4.4 4.8 5.3 5.6 4.6 3.4 2.7 2.7 3.2 2.7 5.0
10.2 2.1 1.0 1.2 0.9 0.7 1.4 2.3 1.8 3.0 3.3 4.0 2.9 4.9 5.0 4.7 3.9 4.8 6.7 7.9 9.3 8.9 8.3 8.2 6.3 4.7 4.3 4.1 4.1 4.7 5.0 4.6 4.5 4.1 5.6 6.2 5.4 4.2 3.2 5.9 7.4 8.0 8.7 7.2 8.5 9.0 9.1 8.5 6.9 5.4 5.8 6.2 4.8 4.2
5.0 2.9 0.6 1.2 2.3 2.5 2.2 2.8 3.1 3.3 2.6 3.5 4.1 3.5 4.2 3.2 4.2 5.3 5.6 7.8 8.7 8.1 8.0 7.7 7.3 6.3 5.9 5.6 6.1 7.0 6.6 5.9 4.6 4.1 3.7 3.5 4.5 5.7 4.3 5.3 7.6 8.9 7.8 7.5 4.5 8.5 12.4 12.4 11.9 12.0 9.2 7.7 6.1 6.6
3.4 2.1 1.8 2.0 2.3 2.9 2.7 2.9 2.4 3.2 2.5 3.0 2.2 1.3 1.3 2.9 5.0 5.4 5.5 6.9 7.9 8.1 8.8 8.4 7.4 7.2 7.2 6.7 6.8 7.6 7.3 7.0 6.0 5.4 9.1 6.4 3.3 5.0 8.0 9.5 9.1 9.0 10.9 11.0 9.1 8.0 7.4 9.0 9.0 10.0 9.7 9.0 8.5 8.2
2.6 1.9 2.5 2.9 3.7 4.2 4.7 4.3 4.0 2.7 2.1 2.1 1.9 2.2 2.5 2.1 4.2 5.1 5.5 6.3 7.4 8.0 8.0 8.2 8.3 8.5 7.8 7.6 8.1 7.2 7.9 7.5 7.6 7.1 7.8 11.5 9.6 10.0 10.4 11.0 11.6 14.2 13.8 11.3 9.8 9.4 8.2 8.3 7.9 7.9 7.7 8.0 7.0 6.5
3.8 3.1 2.5 3.1 4.9 6.0 5.9 5.1 5.0 4.1 4.0 3.6 3.4 2.8 3.1 2.5 1.8 3.6 5.3 5.7 6.1 6.8 7.5 7.5 6.9 7.0 7.0 7.5 7.4 7.2 7.1 8.1 8.7 9.9 11.6 12.3 10.6 10.1 9.5 11.6 12.6 15.2 14.3 13.2 11.4 10.7 10.6 9.8 10.9 9.9 9.7 8.4 7.7 7.1
7.3 5.1 4.5 3.6 4.8 5.6 5.5 4.6 6.9 6.6 5.7 4.9 4.3 3.3 2.8 2.2 2.7 3.5 4.7 4.7 3.9 5.8 6.2 6.6 7.3 6.6 8.4 7.9 7.6 7.3 7.4 10.1 9.1 11.6 15.5 16.5 15.6 16.8 17.8 15.7 12.5 12.3 12.5 12.0 11.3 12.1 12.6 12.2 10.9 9.6 9.3 8.1 8.2 7.3

GFSWCAN_prec_kuchsnow_318.txt.gz
Snowfall_Accumulation
0.0 0.0 0.0 0.0 0.0 0.0 0.0 0.0 0.0 0.0 0.0 0.0 0.0 0.0 0.0 0.0 0.0 0.0 0.0 0.0 0.0 14.7 2.5 0.3 0.7 2.3 3.0 5.4 11.8 7.9 13.3 6.8 5.6 7.7 8.1 3.0 2.4 2.2 0.9 0.6 1.0 2.6 7.3 4.0 5.9 10.7 3.9 0.0 0.0 1.6 3.1 0.7 0.3 1.1
0.0 0.0 0.0 0.0 0.0 0.0 0.0 0.0 0.0 0.0 0.0 0.0 0.0 0.0 0.0 0.0 0.0 0.0 0.0 0.0 0.0 8.0 7.1 1.3 0.6 0.4 0.1 0.6 5.6 10.8 7.3 3.3 5.6 9.8 7.0 10.1 8.8 3.7 1.3 4.3 0.0 4.3 3.3 6.9 6.6 2.3 0.3 0.4 1.2 1.4 2.0 4.3 2.1 2.5
0.0 0.0 0.0 0.0 0.0 0.0 0.0 0.0 0.0 0.0 0.0 0.0 0.0 0.0 0.0 0.0 0.0 0.0 0.0 0.4 2.0 15.5 8.3 4.4 2.2 0.5 0.2 0.1 1.3 11.6 6.8 2.9 6.3 5.4 16.0 17.7 16.3 3.7 6.2 2.3 1.6 0.4 0.9 5.7 3.1 0.0 0.6 2.3 2.2 0.8 1.8 1.9 0.6 0.8
0.0 0.0 0.0 0.0 0.0 0.0 0.0 0.0 0.0 0.0 0.0 0.0 0.0 0.0 0.0 0.0 0.0 0.0 0.1 1.0 2.6 13.8 31.5 3.0 0.4 0.2 0.1 0.9 1.8 3.6 5.0 6.3 7.7 11.0 23.6 24.6 14.3 2.4 3.5 1.7 2.8 3.3 4.2 4.9 5.9 1.1 1.7 1.5 0.6 0.5 1.3 0.9 0.3 0.1
0.0 0.0 0.0 0.0 0.0 0.0 0.0 0.0 0.0 0.0 0.0 0.0 0.0 0.0 0.0 0.0 0.0 0.0 2.7 2.9 1.5 5.1 20.9 3.9 1.0 0.6 0.3 0.9 2.0 3.1 4.3 8.7 11.3 16.4 19.4 12.8 1.5 6.2 5.9 6.2 7.0 4.5 9.5 13.7 9.3 2.8 8.1 2.3 1.1 0.4 1.6 1.3 1.1 1.9
0.0 0.0 0.0 0.0 0.0 0.0 0.0 0.0 0.0 0.0 0.0 0.0 0.0 0.0 0.0 0.0 0.0 1.3 9.9 2.8 1.5 1.8 30.4 33.6 2.8 1.0 0.3 0.3 1.5 2.4 3.6 6.1 8.1 11.8 10.3 4.5 3.4 11.1 22.6 9.9 2.0 1.8 2.4 6.7 7.4 2.6 1.8 1.5 0.9 0.0 1.4 1.3 2.2 3.4
0.0 0.0 0.0 0.0 0.0 0.0 0.0 0.0 0.0 0.0 0.0 0.0 0.0 0.0 0.0 0.0 0.9 6.8 9.7 1.6 0.6 2.8 35.1 42.9 13.2 1.4 1.1 1.3 1.8 1.7 2.8 4.0 5.9 10.3 9.8 4.6 5.3 16.5 26.9 9.9 1.0 1.1 0.5 0.4 1.6 4.1 1.3 0.7 2.0 0.6 1.3 1.1 0.7 0.4
0.0 0.0 0.0 0.0 0.0 0.0 0.0 0.0 0.0 0.0 0.0 0.0 0.0 0.0 0.0 0.0 2.7 7.7 4.4 1.3 2.3 9.8 17.3 43.6 17.8 2.3 0.9 1.8 3.6 2.0 2.9 4.1 5.8 6.8 5.4 5.3 5.8 10.6 19.1 0.5 0.4 0.9 0.0 0.3 0.4 0.7 2.2 0.4 0.2 0.8 0.3 0.8 0.7 0.2
0.0 0.0 0.0 0.0 0.0 0.0 0.0 0.0 0.0 0.0 0.0 0.0 0.0 0.0 2.7 5.9 8.4 5.9 1.3 2.7 8.5 12.8 47.9 25.9 12.9 8.8 1.5 2.2 3.0 4.1 3.6 15.2 6.0 10.8 9.0 6.4 8.4 12.9 6.7 4.6 2.4 1.9 3.6 3.0 0.2 0.0 0.0 0.3 0.4 0.4 0.6 1.0 1.7 0.9
0.0 0.0 0.0 0.0 0.0 0.0 0.0 0.0 0.0 0.0 0.0 0.0 1.8 12.6 34.7 8.5 1.5 2.4 6.6 9.5 15.5 26.0 22.0 20.9 5.0 10.6 2.6 5.7 12.2 12.2 12.4 14.3 18.6 10.3 7.6 12.2 6.3 1.5 1.5 1.7 3.3 3.3 3.2 3.3 4.7 4.8 3.1 2.4 1.2 1.1 2.0 2.5 4.3 3.8
0.0 0.0 0.0 0.0 0.0 0.0 0.0 0.0 0.0 0.0 0.0 5.1 24.2 29.3 20.0 3.1 10.9 21.2 43.3 42.5 35.2 40.9 19.9 11.1 9.6 11.8 7.1 14.7 15.3 13.4 19.1 14.3 21.2 7.7 10.9 10.8 4.8 1.1 0.2 0.5 0.3 1.1 2.1 3.2 5.5 6.1 6.7 8.3 7.1 4.9 2.3 2.0 2.0 2.9
0.0 0.0 0.0 0.0 0.0 0.0 0.0 0.0 0.0 6.1 12.2 8.9 11.8 13.6 16.5 24.0 38.4 50.9 39.3 19.7 22.7 22.0 14.5 10.5 6.3 6.7 10.6 9.6 17.8 19.5 23.9 17.3 18.9 3.9 14.0 7.0 1.3 0.4 0.4 0.8 1.1 1.5 2.6 3.7 4.9 7.0 6.2 5.9 5.0 4.4 4.3 4.6 4.3 4.4
0.0 0.0 0.0 0.0 0.0 0.0 0.0 0.0 0.0 0.0 2.4 14.1 25.3 43.5 36.4 32.0 43.0 29.1 14.8 9.2 12.5 8.1 6.6 7.8 11.0 7.9 9.0 10.2 20.8 20.8 28.0 20.9 6.2 14.7 3.9 2.3 0.1 0.3 1.3 1.4 1.1 0.4 1.4 2.2 3.8 4.1 4.3 2.9 2.1 3.6 3.5 3.7 4.1 4.2
0.0 0.0 0.0 0.0 0.0 0.0 0.0 0.0 0.0 0.9 17.8 41.4 51.1 56.5 35.5 25.3 10.2 5.2 5.4 6.6 4.7 6.4 7.0 5.5 10.6 10.2 8.3 15.6 13.2 25.9 9.4 12.1 16.4 8.1 2.5 1.0 1.8 2.2 1.7 1.4 2.4 1.8 2.4 3.9 6.1 5.1 3.6 4.0 3.7 3.3 5.2 5.9 6.2 8.0
0.0 0.0 0.0 0.0 0.0 0.0 0.0 0.0 1.6 10.1 25.4 53.2 42.3 35.6 16.5 6.7 5.2 6.4 4.8 5.2 7.3 6.4 7.2 7.7 7.9 7.7 11.6 20.7 15.8 14.7 21.0 12.2 4.6 3.5 2.3 3.6 4.1 4.4 4.9 4.5 4.8 4.1 5.0 7.0 9.3 7.1 6.6 4.6 4.5 6.0 8.3 7.4 6.7 7.3
0.0 0.0 0.0 0.0 0.0 0.0 0.1 4.1 16.7 19.7 36.8 42.7 35.8 19.9 6.4 4.2 6.8 7.9 6.9 9.3 7.9 7.9 7.9 13.4 17.0 19.2 21.4 20.8 20.8 10.3 9.7 5.6 5.1 6.1 6.7 6.5 6.1 5.9 6.5 8.7 11.3 11.8 12.9 12.2 15.5 17.0 13.6 11.0 11.6 11.9 8.8 9.1 8.8 8.3
0.0 0.0 0.0 0.0 0.0 0.8 1.7 16.6 29.0 51.4 51.6 43.3 17.8 7.4 8.9 9.8 10.8 12.9 10.1 10.7 7.2 12.6 15.1 19.8 28.8 17.7 11.4 14.8 6.8 2.9 4.8 4.8 6.6 7.9 8.7 7.7 8.2 8.6 8.2 8.7 12.7 14.6 17.6 14.7 15.7 16.7 18.9 15.9 9.6 4.8 7.8 9.1 7.4 7.0
1.1 0.0 0.0 0.0 2.0 7.2 26.5 21.1 47.2 52.0 47.3 19.4 8.9 6.2 6.9 8.6 9.8 6.9 7.0 7.4 11.5 14.2 14.3 22.3 14.2 18.3 15.7 9.6 5.2 4.8 5.4 5.0 6.6 8.4 10.8 10.5 9.8 11.0 10.3 11.9 12.2 11.7 12.5 11.4 9.4 7.7 6.3 4.3 4.7 6.6 6.8 5.8 4.5 4.6
0.0 0.0 0.0 0.1 3.0 13.3 50.4 55.8 34.3 44.0 17.0 7.8 7.6 6.7 5.6 6.4 5.6 6.3 6.5 8.8 12.7 10.7 12.6 14.8 20.6 14.9 8.0 5.9 6.3 6.1 6.7 7.9 9.1 9.2 10.3 9.4 8.1 7.5 6.4 5.4 5.0 4.4 5.7 5.2 4.0 5.4 4.4 3.3 4.0 3.3 3.0 1.5 1.2 1.1
0.0 0.6 2.3 4.5 6.2 36.1 52.4 43.2 23.0 15.5 9.6 7.7 7.3 6.0 4.3 7.5 6.6 4.4 6.2 8.0 9.6 11.2 19.2 20.2 10.3 10.1 12.1 11.8 11.1 11.0 11.9 11.6 8.3 5.8 6.4 5.2 3.1 1.5 0.7 0.4 0.4 0.1 0.1 0.4 0.4 0.5 0.4 0.3 0.2 0.4 0.5 0.5 0.8 0.9
7.2 9.4 8.9 7.0 16.3 42.2 38.3 27.2 18.5 11.4 7.5 6.3 6.7 4.5 6.5 5.0 5.6 5.9 6.4 6.2 14.0 18.3 15.0 11.8 11.6 12.5 11.6 12.6 14.0 12.4 11.3 6.3 4.1 3.2 2.4 1.0 0.4 0.2 0.1 0.1 0.1 0.2 0.3 0.1 0.1 0.0 0.4 1.0 0.9 0.0 0.0 0.3 0.4 0.5
15.8 4.9 24.7 12.6 64.7 62.3 47.0 22.9 12.9 8.6 6.7 8.2 5.7 5.1 7.5 7.2 5.2 6.9 9.9 14.7 18.4 12.4 11.8 11.3 10.6 11.2 10.1 10.5 8.5 5.3 2.2 1.1 0.8 0.6 0.5 0.5 0.6 0.2 0.0 0.2 0.5 0.3 0.2 0.7 0.4 0.8 0.6 0.9 1.0 0.6 0.3 0.3 0.3 0.4
3.5 11.7 42.9 47.4 61.2 56.4 43.9 14.4 14.4 10.7 8.7 7.4 6.7 7.8 10.1 8.7 5.5 5.9 13.7 13.6 12.0 11.5 10.4 8.1 7.5 5.3 4.6 3.5 1.4 1.1 0.8 0.2 0.1 0.2 0.2 0.2 0.3 0.3 0.3 0.2 0.3 0.6 0.1 0.2 0.3 0.4 0.5 0.4 0.4 0.9 0.5 0.6 0.4 0.2
4.0 48.9 59.4 58.3 44.8 44.4 27.8 22.8 12.8 7.0 8.7 8.5 9.4 9.5 9.1 7.4 7.7 9.3 10.3 5.7 8.4 10.5 10.1 10.5 7.3 4.3 3.0 2.9 2.8 2.5 1.2 0.9 0.4 0.3 0.7 0.5 0.2 0.0 0.3 0.1 0.1 0.1 0.8 0.3 0.2 0.1 0.3 0.2 0.6 0.5 0.4 0.8 0.9 0.5
90.2 94.9 54.8 56.8 33.6 20.1 11.9 9.7 7.1 5.0 3.8 2.9 6.1 7.2 7.8 7.5 8.7 8.2 4.7 5.5 8.0 9.3 10.7 9.8 7.9 5.7 4.7 3.4 2.4 1.7 1.9 1.7 2.0 0.7 1.8 1.7 0.5 0.1 0.1 0.1 0.1 0.0 0.0 0.2 0.5 0.7 0.5 0.4 0.9 0.8 0.8 1.9 2.7 2.4
77.1 47.3 36.7 16.1 8.1 3.3 2.5 1.4 1.5 1.6 1.7 3.0 5.2 4.9 5.9 6.4 8.0 7.9 3.9 5.3 9.0 10.9 10.2 8.1 5.6 3.4 2.5 2.2 2.2 2.1 1.5 1.2 1.3 2.2 1.8 2.8 1.9 2.7 1.1 0.8 0.6 0.2 0.2 1.9 3.2 3.0 1.6 1.5 1.2 0.9 1.0 1.9 4.2 4.0
44.7 25.8 9.8 2.4 0.5 0.4 0.9 0.9 1.2 1.9 3.9 4.5 4.6 4.7 5.3 11.7 6.8 4.6 5.0 7.0 8.1 10.0 9.2 7.6 3.9 3.1 2.6 2.9 3.4 3.4 3.0 2.7 2.3 2.6 1.9 4.3 3.3 1.9 1.9 4.9 5.5 2.6 4.2 4.5 4.9 5.4 5.6 4.6 3.4 2.7 2.7 3.2 2.7 5.0
10.2 2.1 1.0 1.2 0.9 0.7 1.4 2.3 1.8 3.0 3.3 4.0 2.9 4.9 5.0 4.7 3.9 4.8 6.7 7.9 9.3 8.9 8.3 8.2 6.3 4.7 4.3 4.1 4.1 4.7 5.0 4.6 4.5 4.1 5.6 6.2 5.4 4.2 3.2 5.9 7.4 8.1 8.8 7.2 8.6 9.1 9.2 8.6 6.9 5.4 5.8 6.2 4.8 4.2
5.0 2.9 0.6 1.2 2.3 2.5 2.2 2.8 3.1 3.3 2.6 3.5 4.1 3.5 4.2 3.2 4.2 5.3 5.6 7.8 8.7 8.1 8.0 7.7 7.3 6.3 5.9 5.6 6.1 7.0 6.6 5.9 4.6 4.1 3.7 3.5 4.5 5.7 4.3 5.3 7.6 8.9 7.8 7.5 4.5 8.7 12.5 12.4 11.9 12.0 9.2 7.7 6.1 6.6
3.4 2.1 1.8 2.0 2.3 2.9 2.7 2.9 2.4 3.2 2.5 3.0 2.2 1.3 1.3 2.9 5.0 5.4 5.5 6.9 7.9 8.1 8.8 8.4 7.4 7.2 7.2 6.7 6.8 7.6 7.3 7.0 6.0 5.4 9.1 6.4 3.3 5.0 8.0 9.5 9.1 9.0 10.9 11.0 9.2 8.0 7.6 9.0 9.0 10.0 9.7 9.1 8.6 8.3
2.6 2.0 2.5 2.9 3.7 4.2 4.7 4.3 4.0 2.7 2.1 2.1 1.9 2.2 2.6 2.2 4.3 5.2 5.5 6.3 7.4 8.0 8.0 8.2 8.3 8.5 7.8 7.6 8.1 7.2 7.9 7.5 7.6 7.1 7.9 11.5 9.6 10.1 10.4 11.0 11.6 14.3 13.8 11.4 9.9 9.5 8.3 8.3 7.9 7.9 7.7 8.0 7.0 6.5
3.8 3.1 2.6 3.1 4.9 6.0 5.9 5.2 5.1 4.2 4.0 3.6 3.6 3.0 3.4 2.7 1.9 3.6 5.3 5.7 6.1 6.8 7.5 7.5 6.9 7.0 7.0 7.5 7.4 7.2 7.3 8.1 8.7 9.9 11.6 12.3 10.6 10.1 9.5 11.6 12.6 15.2 14.3 13.2 11.4 10.7 10.6 9.8 10.9 9.9 9.7 8.5 7.9 7.3
7.6 5.3 5.1 4.2 5.1 5.8 5.5 5.6 7.6 6.8 5.8 5.0 4.4 3.4 3.0 2.3 2.8 3.5 4.7 4.7 3.9 5.8 6.2 6.6 7.3 6.6 8.4 7.9 7.6 7.3 7.4 10.1 9.1 11.8 15.7 16.9 16.4 16.8 17.8 15.7 12.5 12.3 12.5 12.0 11.3 12.1 12.6 12.2 10.9 9.8 9.5 8.4 8.4 7.5

GFSWCAN_prec_kuchsnow_321.txt.gz
Snowfall_Accumulation
0.0 0.0 0.0 0.0 0.0 0.0 0.0 0.0 0.0 0.0 0.0 0.0 0.0 0.0 0.0 0.0 0.0 0.0 0.0 0.0 0.0 16.7 2.6 0.3 0.8 3.1 4.3 6.3 12.7 8.2 13.3 6.8 5.6 7.7 8.2 3.3 2.6 2.2 0.9 1.4 1.9 3.2 7.7 4.0 5.9 10.7 3.9 0.0 0.0 1.6 3.1 0.7 0.3 1.1
0.0 0.0 0.0 0.0 0.0 0.0 0.0 0.0 0.0 0.0 0.0 0.0 0.0 0.0 0.0 0.0 0.0 0.0 0.0 0.0 0.0 8.0 7.1 1.3 0.6 0.5 0.1 1.7 6.7 10.8 7.3 3.3 5.8 10.0 7.1 10.1 8.9 3.7 1.3 4.3 0.0 4.3 3.3 6.9 7.3 2.6 0.3 0.4 1.2 1.4 2.0 4.3 2.1 2.5
0.0 0.0 0.0 0.0 0.0 0.0 0.0 0.0 0.0 0.0 0.0 0.0 0.0 0.0 0.0 0.0 0.0 0.0 0.0 0.4 2.0 15.5 8.3 4.4 2.2 0.5 0.2 0.1 1.3 11.6 6.8 3.6 7.4 5.5 16.1 17.7 16.3 3.7 6.2 2.3 1.6 0.4 0.9 5.7 3.1 0.0 0.6 2.3 2.2 0.8 1.8 1.9 0.6 0.8
0.0 0.0 0.0 0.0 0.0 0.0 0.0 0.0 0.0 0.0 0.0 0.0 0.0 0.0 0.0 0.0 0.0 0.0 0.1 1.0 2.6 13.8 31.5 3.0 0.4 0.2 0.1 0.9 1.8 3.6 5.2 6.7 8.2 11.3 23.6 24.6 14.3 2.4 3.5 1.7 2.8 3.3 4.2 4.9 5.9 1.3 2.0 1.8 0.6 0.5 1.3 0.9 0.3 0.1
0.0 0.0 0.0 0.0 0.0 0.0 0.0 0.0 0.0 0.0 0.0 0.0 0.0 0.0 0.0 0.0 0.0 0.0 2.7 2.9 1.5 5.1 20.9 3.9 1.0 0.6 0.3 0.9 2.0 3.1 4.3 8.7 11.3 16.4 19.5 12.8 1.8 6.3 5.9 6.3 7.1 4.6 9.9 14.1 9.6 2.8 8.5 2.3 1.1 0.4 1.6 1.3 1.1 1.9
0.0 0.0 0.0 0.0 0.0 0.0 0.0 0.0 0.0 0.0 0.0 0.0 0.0 0.0 0.0 0.0 0.0 1.3 9.9 2.8 1.5 1.8 30.4 33.6 2.8 1.0 0.3 0.3 1.5 2.4 3.6 6.1 8.1 12.2 10.6 4.8 3.5 11.1 22.6 10.1 2.3 1.8 2.4 6.7 7.4 2.6 1.8 1.5 0.9 0.0 1.4 1.3 2.2 3.4
0.0 0.0 0.0 0.0 0.0 0.0 0.0 0.0 0.0 0.0 0.0 0.0 0.0 0.0 0.0 0.0 0.9 6.8 9.7 1.6 0.6 2.8 35.1 42.9 13.2 1.4 1.1 1.3 1.8 1.7 2.8 4.0 5.9 10.5 9.9 4.8 5.3 16.6 27.1 10.1 1.0 1.1 0.5 0.4 1.6 4.1 1.3 0.7 2.0 0.6 1.3 1.1 0.7 0.4
0.0 0.0 0.0 0.0 0.0 0.0 0.0 0.0 0.0 0.0 0.0 0.0 0.0 0.0 0.0 0.0 2.7 7.7 4.4 1.3 2.3 9.8 17.3 43.6 17.8 2.3 0.9 1.8 3.6 2.0 2.9 4.1 5.8 6.8 5.4 5.3 5.8 10.6 19.1 0.5 0.4 0.9 0.0 0.3 0.4 0.7 2.2 0.4 0.2 0.8 0.3 0.8 0.7 0.2
0.0 0.0 0.0 0.0 0.0 0.0 0.0 0.0 0.0 0.0 0.0 0.0 0.0 0.0 2.7 5.9 8.4 5.9 1.3 2.7 8.5 12.8 47.9 25.9 12.9 8.8 1.5 2.2 3.0 4.1 3.6 15.2 6.0 10.8 9.0 6.4 8.4 12.9 6.7 4.6 2.4 1.9 3.6 3.0 0.2 0.0 0.0 0.3 0.4 0.4 0.6 1.0 1.7 0.9
0.0 0.0 0.0 0.0 0.0 0.0 0.0 0.0 0.0 0.0 0.0 0.0 1.8 12.6 34.7 8.5 1.5 2.4 6.6 9.5 15.5 26.0 22.0 20.9 5.0 10.6 2.6 5.7 12.2 12.2 12.4 14.3 18.6 10.3 7.6 12.2 6.3 1.5 1.5 1.7 3.3 3.3 3.2 3.3 4.7 4.8 3.1 2.4 1.2 1.1 2.0 2.5 4.3 3.8
0.0 0.0 0.0 0.0 0.0 0.0 0.0 0.0 0.0 0.0 0.0 5.1 24.2 29.3 20.0 3.1 10.9 21.2 43.3 42.5 35.2 40.9 19.9 11.1 9.6 11.8 7.2 14.7 15.3 13.4 19.1 14.3 21.2 7.7 10.9 10.8 4.8 1.1 0.2 0.5 0.3 1.1 2.1 3.2 5.5 6.1 6.7 8.3 7.1 4.9 2.3 2.0 2.0 2.9
0.0 0.0 0.0 0.0 0.0 0.0 0.0 0.0 0.0 6.1 12.2 8.9 11.8 13.6 16.5 24.0 38.4 50.9 39.3 19.7 22.7 22.0 14.5 10.5 6.3 6.7 10.6 9.6 17.9 19.5 23.9 17.3 18.9 3.9 14.0 7.0 1.3 0.4 0.4 0.8 1.1 1.5 2.6 3.7 4.9 7.0 6.2 5.9 5.0 4.4 4.3 4.6 4.3 4.4
0.0 0.0 0.0 0.0 0.0 0.0 0.0 0.0 0.0 0.0 2.4 14.1 25.3 43.5 36.4 32.0 43.0 29.1 14.8 9.2 12.5 8.1 6.6 7.8 11.0 8.0 9.0 10.2 20.8 20.8 28.0 20.9 6.2 14.7 3.9 2.3 0.1 0.3 1.3 1.4 1.1 0.4 1.4 2.2 3.8 4.1 4.3 2.9 2.1 3.6 3.5 3.7 4.1 4.2
0.0 0.0 0.0 0.0 0.0 0.0 0.0 0.0 0.0 0.9 17.8 41.4 51.1 56.5 35.5 25.3 10.2 5.2 5.4 6.6 4.7 6.4 7.0 5.6 10.6 10.2 8.3 15.6 13.2 25.9 9.4 12.1 16.4 8.1 2.5 1.0 1.8 2.2 1.7 1.4 2.4 1.8 2.4 3.9 6.1 5.1 3.6 4.0 3.7 3.3 5.2 5.9 6.2 8.0
0.0 0.0 0.0 0.0 0.0 0.0 0.0 0.0 1.6 10.1 25.4 53.2 42.3 35.6 16.5 6.7 5.2 6.4 4.8 5.2 7.3 6.4 7.2 7.8 7.9 7.7 11.6 20.7 15.8 14.7 21.0 12.2 4.6 3.5 2.3 3.6 4.1 4.4 4.9 4.5 4.8 4.1 5.0 7.0 9.3 7.1 6.6 4.6 4.5 6.0 8.3 7.4 6.7 7.3
0.0 0.0 0.0 0.0 0.0 0.0 0.1 4.1 16.7 19.7 36.8 42.7 35.8 19.9 6.4 4.2 6.8 7.9 6.9 9.3 7.9 7.9 7.9 13.5 17.0 19.2 21.4 20.8 20.8 10.3 9.7 5.6 5.1 6.1 6.7 6.5 6.1 5.9 6.5 8.7 11.3 11.8 12.9 12.2 15.5 17.0 13.6 11.0 11.6 11.9 8.8 9.1 8.8 8.3
0.0 0.0 0.0 0.0 0.0 0.8 1.7 16.6 29.0 51.4 51.6 43.3 17.8 7.4 8.9 9.8 10.8 12.9 10.1 10.7 7.2 12.6 15.1 19.8 28.8 17.7 11.4 14.8 6.8 2.9 4.8 4.8 6.6 7.9 8.7 7.7 8.2 8.6 8.2 8.7 12.7 14.6 17.6 14.7 15.7 16.7 18.9 15.9 9.6 4.8 7.8 9.1 7.4 7.0
1.1 0.0 0.0 0.0 2.0 7.2 26.5 21.1 47.2 52.0 47.3 19.4 8.9 6.2 6.9 8.6 9.8 6.9 7.0 7.4 11.5 14.2 14.3 22.3 14.2 18.3 15.7 9.6 5.2 4.8 5.4 5.0 6.6 8.4 10.8 10.5 9.8 11.0 10.3 12.0 12.2 11.7 12.5 11.4 9.4 7.7 6.3 4.3 4.7 6.6 6.8 5.8 4.6 4.6
0.0 0.0 0.0 0.1 3.0 13.3 50.4 55.8 34.3 44.0 17.0 7.8 7.6 6.7 5.6 6.4 5.6 6.3 6.5 8.8 12.7 10.8 12.6 14.8 20.6 14.9 8.0 5.9 6.3 6.1 6.7 7.9 9.1 9.2 10.3 9.4 8.1 7.5 6.4 5.4 5.0 4.4 5.7 5.2 4.0 5.4 4.4 3.3 4.1 3.3 3.0 1.6 1.2 1.1
0.0 0.6 2.3 4.5 6.2 36.1 52.4 43.2 23.0 15.5 9.6 7.7 7.3 6.0 4.3 7.5 6.6 4.4 6.2 8.0 9.6 11.2 19.2 20.2 10.3 10.1 12.1 11.8 11.1 11.0 11.9 11.6 8.3 5.8 6.4 5.2 3.1 1.5 0.7 0.4 0.4 0.1 0.1 0.4 0.4 0.6 0.4 0.3 0.2 0.4 0.6 0.6 0.9 0.9
7.2 9.4 8.9 7.0 16.3 42.2 38.3 27.2 18.5 11.4 7.5 6.3 6.7 4.5 6.5 5.0 5.6 5.9 6.4 6.3 14.1 18.3 15.0 11.8 11.6 12.5 11.6 12.6 14.0 12.4 11.3 6.3 4.1 3.2 2.4 1.0 0.4 0.2 0.1 0.1 0.1 0.2 0.3 0.1 0.1 0.0 0.4 1.0 0.9 0.0 0.0 0.3 0.4 0.5
15.8 4.9 24.7 12.6 64.7 62.3 47.0 22.9 12.9 8.6 6.7 8.2 5.7 5.1 7.5 7.2 5.2 6.9 10.0 14.7 18.4 12.4 11.8 11.3 10.6 11.2 10.1 10.5 8.5 5.3 2.2 1.1 0.8 0.6 0.5 0.5 0.6 0.2 0.0 0.2 0.5 0.3 0.2 0.7 0.6 0.9 0.6 0.9 1.0 0.6 0.3 0.3 0.3 0.4
3.5 11.7 42.9 47.4 61.2 56.4 43.9 14.4 14.4 10.7 8.7 7.4 6.7 7.8 10.1 8.7 5.5 5.9 13.7 13.6 12.0 11.5 10.4 8.1 7.5 5.3 4.6 3.5 1.4 1.1 0.8 0.2 0.1 0.2 0.2 0.2 0.3 0.3 0.3 0.2 0.3 0.6 0.1 0.2 0.3 0.5 0.6 0.4 0.4 0.9 0.5 0.6 0.4 0.2
4.0 49.0 59.4 58.3 44.9 44.4 28.0 22.8 12.8 7.0 8.7 8.5 9.4 9.5 9.1 7.4 7.7 9.3 10.3 5.7 8.4 10.5 10.1 10.5 7.3 4.3 3.0 2.9 2.8 2.5 1.2 0.9 0.4 0.3 0.7 0.5 0.2 0.0 0.3 0.1 0.1 0.1 0.9 0.3 0.2 0.1 0.3 0.2 0.6 0.5 0.4 0.8 0.9 0.5
90.2 94.9 54.9 56.9 33.8 20.2 12.0 9.7 7.1 5.0 3.8 2.9 6.1 7.2 7.8 7.5 8.7 8.2 4.7 5.5 8.0 9.3 10.7 9.8 7.9 5.7 4.7 3.4 2.4 1.7 1.9 1.7 2.0 0.7 1.8 1.7 0.5 0.1 0.1 0.1 0.1 0.0 0.0 0.2 0.5 0.7 0.5 0.4 0.9 0.8 0.8 1.9 2.7 2.4
77.4 47.3 36.7 16.1 8.1 3.3 2.5 1.4 1.5 1.6 1.7 3.0 5.2 4.9 5.9 6.4 8.0 7.9 3.9 5.3 9.0 10.9 10.2 8.1 5.6 3.4 2.5 2.2 2.2 2.1 1.5 1.2 1.3 2.2 1.8 2.8 1.9 2.7 1.1 0.8 0.6 0.2 0.2 1.9 3.3 3.0 1.6 1.5 1.2 0.9 1.0 1.9 4.2 4.0
45.0 25.8 9.8 2.4 0.5 0.4 0.9 0.9 1.2 1.9 3.9 4.5 4.6 4.7 5.3 11.7 6.8 4.6 5.0 7.0 8.1 10.0 9.2 7.6 3.9 3.1 2.6 2.9 3.4 3.4 3.0 2.7 2.3 2.6 1.9 4.3 3.3 1.9 1.9 4.9 5.5 2.6 4.4 4.6 5.0 5.5 5.7 4.6 3.4 2.7 2.7 3.2 2.7 5.0
10.2 2.1 1.0 1.2 0.9 0.7 1.4 2.3 1.8 3.0 3.3 4.0 2.9 4.9 5.0 4.7 3.9 4.8 6.7 7.9 9.3 8.9 8.3 8.2 6.3 4.7 4.3 4.1 4.1 4.7 5.0 4.6 4.5 4.1 5.6 6.2 5.4 4.2 3.2 5.9 7.4 8.3 8.9 7.2 8.8 9.2 9.4 8.7 7.0 5.5 5.8 6.2 4.8 4.2
5.0 2.9 0.6 1.2 2.3 2.5 2.2 2.8 3.1 3.3 2.6 3.5 4.1 3.5 4.2 3.2 4.2 5.3 5.6 7.8 8.7 8.1 8.0 7.7 7.3 6.3 5.9 5.6 6.1 7.0 6.6 5.9 4.6 4.1 3.7 3.5 4.5 5.7 4.3 5.3 7.6 8.9 7.8 7.5 4.5 8.9 12.9 12.6 11.9 12.0 9.2 7.7 6.1 6.7
3.4 2.1 1.8 2.0 2.3 2.9 2.7 2.9 2.4 3.2 2.5 3.0 2.2 1.3 1.3 2.9 5.0 5.4 5.7 7.2 8.2 8.3 8.8 8.4 7.4 7.2 7.2 6.7 6.8 7.6 7.3 7.0 6.0 5.4 9.1 6.4 3.3 5.0 8.0 9.5 9.1 9.0 10.9 11.0 9.2 8.0 7.6 9.0 9.0 10.0 9.7 9.1 8.6 8.5
2.6 2.0 2.5 3.0 3.7 4.2 4.7 4.3 4.0 2.7 2.1 2.1 1.9 2.5 2.8 2.6 4.7 5.6 6.0 6.8 7.8 8.2 8.1 8.2 8.3 8.5 7.8 7.6 8.1 7.2 7.9 7.5 7.6 7.1 7.9 11.5 9.6 10.1 10.4 11.0 11.6 14.3 13.8 11.4 9.9 9.5 8.3 8.3 7.9 7.9 7.7 8.0 7.0 6.6
3.8 3.1 2.6 3.2 4.9 6.0 5.9 5.2 5.1 4.4 4.0 3.6 3.9 3.5 4.1 3.6 2.7 4.0 5.3 6.1 6.5 6.9 7.5 7.5 6.9 7.0 7.0 7.5 7.4 7.2 7.3 8.1 8.7 9.9 11.6 12.3 10.6 10.2 9.5 11.6 12.6 15.2 14.3 13.2 11.4 10.7 10.6 9.8 10.9 9.9 9.7 8.5 8.0 7.4
7.8 5.7 5.6 4.6 5.1 5.8 5.5 6.4 8.3 7.1 5.8 5.1 4.7 3.7 3.6 2.9 3.3 3.7 4.7 4.9 3.9 5.8 6.2 6.6 7.3 6.6 8.4 7.9 7.6 7.3 7.4 10.1 9.1 11.9 15.9 17.3 17.3 16.8 17.8 15.7 12.5 12.3 12.5 12.0 11.3 12.1 12.6 12.2 10.9 9.8 9.5 8.4 8.4 7.5

GFSWCAN_prec_kuchsnow_324.txt.gz
Snowfall_Accumulation
0.0 0.0 0.0 0.0 0.0 0.0 0.0 0.0 0.0 0.0 0.0 0.0 0.0 0.0 0.0 0.0 0.0 0.0 0.0 0.0 0.0 19.0 2.6 0.3 0.8 3.6 4.6 6.9 14.8 8.8 13.3 6.8 5.6 7.7 8.2 3.3 2.6 2.2 0.9 2.2 2.7 3.7 8.0 4.0 5.9 10.8 4.0 0.0 0.0 1.6 3.1 0.7 0.3 1.1
0.0 0.0 0.0 0.0 0.0 0.0 0.0 0.0 0.0 0.0 0.0 0.0 0.0 0.0 0.0 0.0 0.0 0.0 0.0 0.0 0.0 8.0 7.1 1.3 0.6 0.5 0.1 2.3 7.3 10.8 7.3 3.3 5.8 10.0 7.1 10.3 8.9 3.7 1.3 4.3 0.0 4.3 3.3 7.4 8.2 3.0 0.3 0.4 1.2 1.4 2.0 4.3 2.1 2.5
0.0 0.0 0.0 0.0 0.0 0.0 0.0 0.0 0.0 0.0 0.0 0.0 0.0 0.0 0.0 0.0 0.0 0.0 0.0 0.4 2.0 15.5 8.3 4.4 2.2 0.5 0.2 0.1 1.3 11.7 6.9 3.7 8.8 5.8 16.1 17.7 16.3 3.7 6.2 2.3 1.6 0.4 0.9 5.7 3.1 0.0 0.6 2.3 2.2 0.8 1.8 1.9 0.6 0.8
0.0 0.0 0.0 0.0 0.0 0.0 0.0 0.0 0.0 0.0 0.0 0.0 0.0 0.0 0.0 0.0 0.0 0.0 0.1 1.0 2.6 13.8 31.5 3.0 0.4 0.2 0.1 0.9 1.8 3.6 5.2 6.8 8.6 11.5 23.7 24.6 14.3 2.4 3.5 1.8 2.8 3.3 4.2 4.9 5.9 1.5 2.2 1.8 0.6 0.5 1.3 0.9 0.3 0.1
0.0 0.0 0.0 0.0 0.0 0.0 0.0 0.0 0.0 0.0 0.0 0.0 0.0 0.0 0.0 0.0 0.0 0.0 2.7 2.9 1.5 5.1 20.9 3.9 1.0 0.6 0.3 0.9 2.0 3.1 4.3 8.7 11.3 16.5 19.6 12.8 2.2 6.5 6.0 6.4 7.6 5.2 10.8 14.6 9.8 2.8 8.5 2.3 1.1 0.4 1.6 1.3 1.1 1.9
0.0 0.0 0.0 0.0 0.0 0.0 0.0 0.0 0.0 0.0 0.0 0.0 0.0 0.0 0.0 0.0 0.0 1.3 9.9 2.8 1.5 1.8 30.4 33.6 2.8 1.0 0.3 0.3 1.5 2.4 3.6 6.1 8.1 12.3 10.9 5.2 3.9 11.3 22.6 10.4 2.8 1.8 2.4 6.7 7.4 2.6 1.8 1.5 0.9 0.0 1.4 1.3 2.2 3.4
0.0 0.0 0.0 0.0 0.0 0.0 0.0 0.0 0.0 0.0 0.0 0.0 0.0 0.0 0.0 0.0 0.9 6.8 9.7 1.6 0.6 2.8 35.1 42.9 13.2 1.4 1.1 1.3 1.8 1.7 2.8 4.0 5.9 10.6 9.9 5.0 5.3 16.7 27.2 10.5 1.0 1.1 0.5 0.4 1.6 4.1 1.3 0.7 2.0 0.6 1.3 1.1 0.7 0.4
0.0 0.0 0.0 0.0 0.0 0.0 0.0 0.0 0.0 0.0 0.0 0.0 0.0 0.0 0.0 0.0 2.7 7.7 4.4 1.3 2.3 9.8 17.3 43.6 17.8 2.3 0.9 1.8 3.6 2.0 2.9 4.1 5.8 6.8 5.4 5.3 5.8 10.6 19.1 0.5 0.4 0.9 0.0 0.3 0.4 0.7 2.2 0.4 0.2 0.8 0.3 0.8 0.7 0.2
0.0 0.0 0.0 0.0 0.0 0.0 0.0 0.0 0.0 0.0 0.0 0.0 0.0 0.0 2.7 5.9 8.4 5.9 1.3 2.7 8.5 12.8 47.9 25.9 12.9 8.8 1.5 2.2 3.0 4.1 3.6 15.2 6.0 10.8 9.0 6.4 8.4 12.9 6.7 4.6 2.4 1.9 3.6 3.0 0.2 0.0 0.0 0.3 0.4 0.4 0.6 1.0 1.7 0.9
0.0 0.0 0.0 0.0 0.0 0.0 0.0 0.0 0.0 0.0 0.0 0.0 1.8 12.6 34.7 8.5 1.5 2.4 6.6 9.5 15.5 26.0 22.0 20.9 5.1 10.6 2.6 5.7 12.2 12.2 12.4 14.3 18.6 10.3 7.6 12.2 6.3 1.5 1.5 1.7 3.3 3.3 3.2 3.3 4.7 4.8 3.1 2.4 1.2 1.1 2.0 2.5 4.3 3.8
0.0 0.0 0.0 0.0 0.0 0.0 0.0 0.0 0.0 0.0 0.0 5.1 24.2 29.3 20.0 3.1 10.9 21.2 43.3 42.5 35.2 40.9 19.9 11.1 9.6 11.8 7.2 14.7 15.3 13.4 19.1 14.3 21.2 7.7 10.9 10.8 4.8 1.1 0.2 0.6 0.3 1.1 2.1 3.2 5.5 6.1 6.7 8.3 7.1 4.9 2.3 2.0 2.0 2.9
0.0 0.0 0.0 0.0 0.0 0.0 0.0 0.0 0.0 6.1 12.2 8.9 11.8 13.6 16.5 24.0 38.4 50.9 39.3 19.7 22.7 22.0 14.5 10.5 6.3 6.7 10.6 9.6 17.9 19.5 23.9 17.3 18.9 3.9 14.0 7.0 1.3 0.4 0.4 0.8 1.1 1.5 2.6 3.7 4.9 7.0 6.2 5.9 5.0 4.4 4.3 4.6 4.3 4.4
0.0 0.0 0.0 0.0 0.0 0.0 0.0 0.0 0.0 0.0 2.4 14.1 25.3 43.5 36.4 32.0 43.0 29.1 14.8 9.2 12.5 8.1 6.6 7.8 11.1 8.1 9.0 10.2 20.8 20.8 28.0 20.9 6.2 14.7 3.9 2.3 0.1 0.3 1.3 1.4 1.1 0.4 1.4 2.2 3.8 4.1 4.3 2.9 2.1 3.6 3.5 3.7 4.1 4.2
0.0 0.0 0.0 0.0 0.0 0.0 0.0 0.0 0.0 0.9 17.8 41.4 51.1 56.5 35.5 25.3 10.2 5.2 5.4 6.6 4.7 6.4 7.0 5.6 10.6 10.2 8.3 15.6 13.2 25.9 9.4 12.1 16.4 8.1 2.5 1.0 1.8 2.2 1.7 1.4 2.4 1.8 2.4 3.9 6.1 5.1 3.6 4.0 3.7 3.3 5.2 5.9 6.2 8.0
0.0 0.0 0.0 0.0 0.0 0.0 0.0 0.0 1.6 10.1 25.4 53.2 42.3 35.6 16.5 6.7 5.2 6.4 4.8 5.2 7.3 6.4 7.2 7.8 7.9 7.7 11.6 20.7 15.8 14.7 21.0 12.2 4.6 3.5 2.3 3.6 4.1 4.4 4.9 4.5 4.8 4.1 5.0 7.0 9.3 7.1 6.6 4.6 4.5 6.0 8.3 7.4 6.7 7.3
0.0 0.0 0.0 0.0 0.0 0.0 0.1 4.1 16.7 19.7 36.8 42.7 35.8 19.9 6.4 4.2 6.8 7.9 6.9 9.3 7.9 7.9 7.9 13.5 17.0 19.2 21.4 20.8 20.8 10.3 9.7 5.6 5.1 6.1 6.7 6.5 6.1 5.9 6.6 8.8 11.3 11.8 12.9 12.2 15.5 17.0 13.6 11.0 11.6 11.9 8.8 9.1 8.8 8.3
0.0 0.0 0.0 0.0 0.0 0.8 1.7 16.6 29.0 51.4 51.6 43.3 17.8 7.4 8.9 9.8 10.8 12.9 10.1 10.7 7.2 12.6 15.1 19.8 28.8 17.7 11.4 14.8 6.8 2.9 4.8 4.8 6.6 7.9 8.7 7.7 8.2 8.6 8.2 8.7 12.7 14.6 17.6 14.7 15.7 16.7 18.9 15.9 9.6 4.8 7.8 9.1 7.4 7.0
1.1 0.0 0.0 0.0 2.0 7.2 26.5 21.1 47.2 52.0 47.3 19.4 8.9 6.2 6.9 8.6 9.8 6.9 7.0 7.4 11.5 14.2 14.4 22.3 14.2 18.3 15.7 9.6 5.2 4.8 5.4 5.0 6.6 8.4 10.8 10.5 9.8 11.0 10.3 12.0 12.2 11.7 12.5 11.4 9.4 7.7 6.3 4.3 4.7 6.6 6.8 5.8 4.6 4.6
0.0 0.0 0.0 0.1 3.0 13.3 50.4 55.8 34.3 44.0 17.0 7.8 7.6 6.7 5.6 6.4 5.6 6.3 6.5 8.8 12.7 10.8 12.6 14.8 20.6 14.9 8.0 5.9 6.3 6.1 6.7 7.9 9.1 9.2 10.3 9.4 8.1 7.5 6.4 5.4 5.0 4.4 5.7 5.2 4.0 5.4 4.4 3.3 4.1 3.3 3.0 1.6 1.2 1.1
0.0 0.6 2.3 4.5 6.2 36.1 52.4 43.2 23.0 15.5 9.6 7.7 7.3 6.0 4.3 7.5 6.6 4.4 6.3 8.0 9.6 11.2 19.3 20.3 10.3 10.1 12.1 11.8 11.1 11.0 11.9 11.6 8.3 5.8 6.4 5.2 3.1 1.5 0.7 0.4 0.4 0.1 0.1 0.4 0.4 0.6 0.4 0.3 0.2 0.4 0.6 0.6 0.9 0.9
7.2 9.4 8.9 7.0 16.3 42.2 38.3 27.2 18.5 11.4 7.5 6.3 6.7 4.5 6.5 5.0 5.6 5.9 6.4 6.4 14.2 18.3 15.0 11.8 11.6 12.5 11.6 12.6 14.0 12.4 11.3 6.3 4.1 3.2 2.4 1.0 0.4 0.2 0.1 0.1 0.1 0.2 0.3 0.1 0.1 0.0 0.4 1.0 0.9 0.1 0.0 0.3 0.4 0.5
15.8 4.9 24.7 12.6 64.7 62.3 47.1 23.0 12.9 8.6 6.7 8.2 5.8 5.1 7.5 7.2 5.2 6.9 10.0 14.8 18.4 12.4 11.8 11.3 10.6 11.2 10.1 10.5 8.5 5.3 2.2 1.1 0.8 0.6 0.5 0.5 0.6 0.2 0.0 0.2 0.5 0.3 0.2 0.7 0.6 1.0 0.6 0.9 1.0 0.6 0.3 0.3 0.3 0.4
3.5 11.7 43.0 47.5 61.3 56.5 43.9 14.4 14.5 10.7 8.7 7.4 6.7 7.8 10.1 8.7 5.5 5.9 13.7 13.6 12.0 11.5 10.4 8.1 7.5 5.3 4.6 3.5 1.4 1.1 0.8 0.2 0.1 0.2 0.2 0.2 0.3 0.3 0.3 0.2 0.3 0.6 0.1 0.2 0.3 0.5 0.6 0.4 0.4 0.9 0.5 0.6 0.4 0.2
4.0 49.2 59.4 58.3 45.1 44.4 28.1 22.8 12.8 7.0 8.8 8.5 9.4 9.5 9.1 7.4 7.7 9.3 10.3 5.7 8.4 10.5 10.1 10.5 7.3 4.3 3.0 2.9 2.8 2.5 1.2 0.9 0.4 0.3 0.7 0.5 0.2 0.0 0.3 0.1 0.1 0.1 1.0 0.3 0.2 0.1 0.3 0.2 0.6 0.5 0.4 0.8 0.9 0.5
90.2 94.9 54.9 56.9 34.0 20.4 12.1 9.8 7.2 5.0 3.8 2.9 6.1 7.2 7.8 7.5 8.7 8.2 4.7 5.5 8.0 9.3 10.7 9.8 7.9 5.7 4.7 3.4 2.4 1.7 1.9 1.7 2.0 0.7 1.8 1.7 0.5 0.1 0.1 0.1 0.1 0.0 0.0 0.2 0.5 0.7 0.5 0.4 0.9 0.8 0.8 1.9 2.7 2.4
77.8 47.3 36.7 16.1 8.1 3.3 2.5 1.4 1.6 1.6 1.7 3.0 5.2 4.9 5.9 6.4 8.0 7.9 3.9 5.3 9.0 10.9 10.2 8.1 5.6 3.4 2.5 2.2 2.2 2.1 1.5 1.2 1.3 2.2 1.8 2.8 1.9 2.7 1.1 0.8 0.6 0.2 0.2 1.9 3.4 3.0 1.6 1.5 1.2 0.9 1.0 1.9 4.2 4.0
45.3 25.8 9.8 2.5 0.5 0.4 0.9 0.9 1.2 1.9 3.9 4.5 4.6 4.7 5.3 11.7 6.8 4.6 5.0 7.0 8.1 10.0 9.2 7.6 3.9 3.1 2.6 2.9 3.4 3.4 3.0 2.7 2.3 2.6 1.9 4.3 3.3 1.9 1.9 4.9 5.5 2.6 4.4 4.7 5.0 5.5 5.8 4.6 3.4 2.7 2.7 3.2 2.7 5.0
10.2 2.1 1.0 1.2 0.9 0.7 1.4 2.3 1.8 3.0 3.3 4.0 2.9 4.9 5.0 4.7 3.9 4.8 6.7 7.9 9.3 8.9 8.3 8.3 6.5 4.8 4.4 4.1 4.1 4.7 5.0 4.6 4.5 4.1 5.6 6.2 5.4 4.2 3.2 5.9 7.4 8.4 9.1 7.2 8.9 9.2 9.5 8.9 7.0 5.5 5.8 6.2 4.8 4.2
5.0 2.9 0.6 1.2 2.3 2.5 2.2 2.8 3.1 3.3 2.6 3.5 4.1 3.5 4.2 3.2 4.2 5.3 5.6 7.8 8.7 8.3 8.5 8.2 7.7 6.5 6.0 5.6 6.1 7.0 6.6 5.9 4.6 4.1 3.7 3.5 4.5 5.7 4.3 5.3 7.6 8.9 7.8 7.5 4.5 8.9 13.2 12.9 12.0 12.0 9.2 7.7 6.1 6.7
3.4 2.1 1.8 2.0 2.3 2.9 2.7 2.9 2.4 3.2 2.5 3.0 2.2 1.3 1.3 2.9 5.0 5.4 6.0 7.6 8.8 9.0 9.5 9.0 7.8 7.5 7.3 6.7 6.8 7.6 7.3 7.0 6.0 5.4 9.1 6.4 3.3 5.0 8.0 9.5 9.1 9.0 10.9 11.0 9.2 8.0 7.6 9.0 9.0 10.0 9.7 9.1 8.6 8.5
2.6 2.1 2.7 3.1 3.7 4.2 4.7 4.3 4.0 2.7 2.1 2.1 1.9 2.7 3.1 2.9 5.1 6.0 6.4 7.5 8.7 9.1 8.9 8.8 8.8 8.7 7.9 7.6 8.1 7.2 7.9 7.5 7.6 7.1 7.9 11.5 9.6 10.1 10.4 11.0 11.6 14.3 13.8 11.4 9.9 9.5 8.3 8.3 7.9 7.9 7.7 8.0 7.0 6.6
3.8 3.1 2.6 3.3 4.9 6.0 5.9 5.2 5.2 4.5 4.0 3.6 4.0 3.8 4.6 4.2 3.3 4.5 5.3 6.7 7.5 7.9 8.1 8.0 7.1 7.1 7.0 7.5 7.4 7.2 7.3 8.1 8.7 9.9 11.6 12.3 10.8 10.2 9.5 11.6 12.6 15.2 14.3 13.2 11.4 10.7 10.6 9.8 10.9 9.9 9.7 8.5 8.0 7.4
7.9 5.9 6.0 5.0 5.3 5.8 5.5 6.9 8.7 7.1 5.8 5.1 4.7 3.8 4.0 3.8 4.0 4.1 5.0 5.4 4.5 6.2 6.5 6.9 7.4 6.6 8.4 7.9 7.6 7.3 7.4 10.1 9.1 12.0 16.0 17.5 18.0 17.0 17.8 15.7 12.5 12.3 12.5 12.0 11.3 12.1 12.6 12.2 10.9 9.8 9.5 8.4 8.4 7.5

GFSWCAN_prec_kuchsnow_327.txt.gz
Snowfall_Accumulation
0.0 0.0 0.0 0.0 0.0 0.0 0.0 0.0 0.0 0.0 0.0 0.0 0.0 0.0 0.0 0.0 0.0 0.0 0.0 0.0 0.0 19.0 2.6 0.3 0.8 3.7 4.7 7.1 15.2 8.8 13.3 6.8 5.6 7.7 8.2 3.3 2.6 2.2 0.9 2.2 3.1 4.1 8.7 4.4 5.9 10.8 4.0 0.0 0.0 1.6 3.1 0.7 0.3 1.1
0.0 0.0 0.0 0.0 0.0 0.0 0.0 0.0 0.0 0.0 0.0 0.0 0.0 0.0 0.0 0.0 0.0 0.0 0.0 0.0 0.0 8.0 7.1 1.3 0.6 0.5 0.1 2.3 7.4 10.8 7.4 3.4 6.0 10.0 7.1 10.3 8.9 3.7 1.3 4.3 0.0 4.3 3.3 7.6 8.7 3.2 0.5 0.4 1.2 1.4 2.0 4.3 2.1 2.5
0.0 0.0 0.0 0.0 0.0 0.0 0.0 0.0 0.0 0.0 0.0 0.0 0.0 0.0 0.0 0.0 0.0 0.0 0.0 0.4 2.0 15.5 8.3 4.4 2.2 0.5 0.2 0.1 1.3 11.9 7.1 3.7 8.8 6.4 16.1 17.7 16.3 3.7 6.2 2.3 1.6 0.4 0.9 5.8 3.1 0.2 0.7 2.3 2.2 0.8 1.8 1.9 0.6 0.8
0.0 0.0 0.0 0.0 0.0 0.0 0.0 0.0 0.0 0.0 0.0 0.0 0.0 0.0 0.0 0.0 0.0 0.0 0.1 1.0 2.6 13.8 31.5 3.0 0.4 0.2 0.1 0.9 1.8 3.6 5.2 6.8 8.8 11.7 23.7 24.6 14.3 2.4 3.5 1.9 3.1 3.6 4.5 5.0 6.0 1.6 2.2 1.8 0.6 0.5 1.3 0.9 0.3 0.1
0.0 0.0 0.0 0.0 0.0 0.0 0.0 0.0 0.0 0.0 0.0 0.0 0.0 0.0 0.0 0.0 0.0 0.0 2.7 2.9 1.5 5.1 20.9 3.9 1.0 0.6 0.3 0.9 2.0 3.1 4.3 8.7 11.3 16.5 19.7 12.8 2.6 7.0 6.1 6.6 8.1 5.5 11.1 14.7 9.9 2.9 8.5 2.3 1.1 0.4 1.6 1.3 1.1 1.9
0.0 0.0 0.0 0.0 0.0 0.0 0.0 0.0 0.0 0.0 0.0 0.0 0.0 0.0 0.0 0.0 0.0 1.3 9.9 2.8 1.5 1.8 30.4 33.6 2.8 1.0 0.3 0.3 1.5 2.4 3.6 6.1 8.1 12.5 11.1 5.5 4.1 11.5 22.6 10.7 3.1 1.8 2.4 6.7 7.4 2.6 1.8 1.5 0.9 0.0 1.4 1.3 2.2 3.4
0.0 0.0 0.0 0.0 0.0 0.0 0.0 0.0 0.0 0.0 0.0 0.0 0.0 0.0 0.0 0.0 0.9 6.8 9.7 1.6 0.6 2.8 35.1 42.9 13.2 1.4 1.1 1.3 1.8 1.7 2.8 4.0 5.9 10.6 9.9 5.0 5.3 16.7 27.2 10.5 1.0 1.1 0.5 0.4 1.6 4.1 1.3 0.7 2.0 0.6 1.3 1.1 0.7 0.4
0.0 0.0 0.0 0.0 0.0 0.0 0.0 0.0 0.0 0.0 0.0 0.0 0.0 0.0 0.0 0.0 2.7 7.7 4.4 1.3 2.3 9.8 17.3 43.6 17.8 2.3 0.9 1.8 3.6 2.0 2.9 4.1 5.8 6.8 5.4 5.3 5.8 10.6 19.1 0.5 0.4 0.9 0.0 0.3 0.4 0.7 2.2 0.4 0.2 0.8 0.3 0.8 0.7 0.2
0.0 0.0 0.0 0.0 0.0 0.0 0.0 0.0 0.0 0.0 0.0 0.0 0.0 0.0 2.7 5.9 8.4 5.9 1.3 2.7 8.5 12.8 47.9 25.9 12.9 8.8 1.5 2.2 3.0 4.1 3.6 15.2 6.0 10.8 9.0 6.4 8.4 12.9 6.7 4.6 2.4 1.9 3.6 3.0 0.2 0.0 0.0 0.3 0.4 0.4 0.6 1.0 1.7 0.9
0.0 0.0 0.0 0.0 0.0 0.0 0.0 0.0 0.0 0.0 0.0 0.0 1.8 12.6 34.7 8.5 1.5 2.4 6.6 9.5 15.5 26.0 22.0 20.9 5.1 10.6 2.6 5.7 12.2 12.2 12.4 14.3 18.6 10.3 7.6 12.2 6.3 1.5 1.5 1.7 3.3 3.3 3.2 3.3 4.7 4.8 3.1 2.4 1.2 1.1 2.0 2.5 4.3 3.8
0.0 0.0 0.0 0.0 0.0 0.0 0.0 0.0 0.0 0.0 0.0 5.1 24.2 29.3 20.0 3.1 10.9 21.2 43.3 42.5 35.2 40.9 19.9 11.1 9.6 11.9 7.2 14.7 15.3 13.4 19.1 14.3 21.2 7.7 10.9 10.8 4.8 1.1 0.2 0.6 0.3 1.1 2.1 3.2 5.5 6.1 6.7 8.3 7.1 4.9 2.3 2.0 2.0 2.9
0.0 0.0 0.0 0.0 0.0 0.0 0.0 0.0 0.0 6.1 12.2 8.9 11.8 13.6 16.5 24.0 38.4 50.9 39.3 19.7 22.7 22.0 14.5 10.5 6.3 6.7 10.6 9.6 18.0 19.5 23.9 17.3 18.9 3.9 14.0 7.0 1.3 0.4 0.4 0.8 1.1 1.5 2.6 3.7 4.9 7.0 6.2 5.9 5.0 4.4 4.3 4.6 4.3 4.4
0.0 0.0 0.0 0.0 0.0 0.0 0.0 0.0 0.0 0.0 2.4 14.1 25.3 43.5 36.4 32.0 43.0 29.1 14.8 9.2 12.5 8.1 6.6 7.8 11.1 8.1 9.0 10.3 20.8 20.8 28.0 20.9 6.2 14.7 3.9 2.3 0.1 0.3 1.3 1.4 1.1 0.4 1.4 2.2 3.8 4.1 4.3 2.9 2.1 3.6 3.5 3.7 4.1 4.2
0.0 0.0 0.0 0.0 0.0 0.0 0.0 0.0 0.0 0.9 17.8 41.4 51.1 56.5 35.5 25.3 10.2 5.2 5.4 6.6 4.7 6.4 7.0 5.6 10.6 10.2 8.3 15.6 13.2 25.9 9.4 12.1 16.4 8.1 2.5 1.0 1.8 2.2 1.7 1.4 2.4 1.8 2.4 3.9 6.1 5.1 3.6 4.0 3.7 3.3 5.2 5.9 6.2 8.0
0.0 0.0 0.0 0.0 0.0 0.0 0.0 0.0 1.6 10.1 25.4 53.2 42.3 35.6 16.5 6.7 5.2 6.4 4.8 5.2 7.3 6.4 7.2 7.9 7.9 7.7 11.6 20.7 15.8 14.7 21.0 12.2 4.6 3.5 2.3 3.6 4.1 4.4 4.9 4.5 4.8 4.1 5.0 7.0 9.3 7.1 6.6 4.6 4.5 6.0 8.3 7.4 6.7 7.3
0.0 0.0 0.0 0.0 0.0 0.0 0.1 4.1 16.7 19.7 36.8 42.7 35.8 19.9 6.4 4.2 6.8 7.9 6.9 9.3 7.9 7.9 7.9 13.5 17.0 19.2 21.4 20.8 20.8 10.3 9.7 5.6 5.1 6.1 6.7 6.5 6.1 5.9 6.6 8.8 11.3 11.8 12.9 12.2 15.5 17.0 13.6 11.0 11.6 11.9 8.8 9.1 8.8 8.3
0.0 0.0 0.0 0.0 0.0 0.8 1.7 16.6 29.0 51.4 51.6 43.3 17.8 7.4 8.9 9.8 10.8 12.9 10.1 10.7 7.2 12.6 15.1 19.8 28.8 17.7 11.4 14.8 6.8 2.9 4.8 4.8 6.6 7.9 8.7 7.7 8.2 8.6 8.2 8.7 12.7 14.6 17.6 14.7 15.7 16.7 18.9 15.9 9.6 4.8 7.8 9.1 7.4 7.0
1.1 0.0 0.0 0.0 2.0 7.2 26.5 21.1 47.2 52.0 47.3 19.4 8.9 6.2 6.9 8.6 9.8 6.9 7.0 7.4 11.5 14.2 14.4 22.3 14.2 18.3 15.7 9.6 5.2 4.8 5.4 5.0 6.6 8.4 10.8 10.5 9.8 11.0 10.3 12.0 12.2 11.7 12.5 11.4 9.4 7.7 6.3 4.3 4.7 6.6 6.8 5.8 4.6 4.6
0.0 0.0 0.0 0.1 3.0 13.3 50.4 55.8 34.3 44.0 17.0 7.8 7.6 6.7 5.6 6.4 5.7 6.3 6.5 8.8 12.7 10.8 12.6 14.8 20.6 14.9 8.0 5.9 6.3 6.1 6.7 7.9 9.1 9.2 10.3 9.4 8.1 7.5 6.4 5.4 5.0 4.4 5.7 5.2 4.0 5.4 4.4 3.3 4.2 3.3 3.0 1.6 1.2 1.1
0.0 0.6 2.3 4.5 6.2 36.1 52.4 43.2 23.0 15.5 9.6 7.7 7.3 6.0 4.3 7.5 6.6 4.4 6.4 8.1 9.7 11.3 19.3 20.3 10.3 10.1 12.1 11.8 11.1 11.0 11.9 11.6 8.3 5.8 6.4 5.2 3.1 1.5 0.7 0.4 0.4 0.1 0.1 0.4 0.4 0.6 0.4 0.3 0.2 0.4 0.6 0.7 1.0 0.9
7.2 9.4 8.9 7.0 16.3 42.2 38.3 27.2 18.5 11.4 7.5 6.3 6.7 4.5 6.5 5.0 5.6 5.9 6.4 6.6 14.3 18.3 15.0 11.8 11.6 12.5 11.6 12.6 14.0 12.4 11.3 6.3 4.1 3.2 2.4 1.0 0.4 0.2 0.1 0.1 0.1 0.2 0.3 0.1 0.1 0.0 0.4 1.0 0.9 0.1 0.1 0.3 0.4 0.5
15.8 4.9 24.7 12.6 64.7 62.4 47.2 23.1 13.0 8.7 6.8 8.2 5.8 5.1 7.5 7.2 5.2 6.9 10.1 14.9 18.4 12.4 11.8 11.3 10.6 11.2 10.1 10.5 8.5 5.3 2.2 1.1 0.8 0.6 0.5 0.5 0.6 0.2 0.0 0.2 0.5 0.3 0.2 0.7 0.6 1.0 0.6 0.9 1.1 0.7 0.4 0.3 0.3 0.4
3.5 11.7 43.0 47.5 61.4 56.7 43.9 14.4 14.6 10.8 8.7 7.4 6.7 7.8 10.1 8.7 5.5 6.0 13.7 13.6 12.0 11.5 10.4 8.1 7.5 5.3 4.6 3.5 1.4 1.1 0.8 0.2 0.1 0.2 0.2 0.2 0.3 0.3 0.3 0.2 0.3 0.6 0.1 0.2 0.3 0.5 0.6 0.4 0.4 0.9 0.5 0.6 0.4 0.2
4.0 49.3 59.4 58.3 45.3 44.4 28.2 22.9 12.9 7.1 8.8 8.5 9.4 9.5 9.1 7.4 7.7 9.3 10.3 5.7 8.4 10.5 10.1 10.5 7.3 4.3 3.0 2.9 2.8 2.5 1.2 0.9 0.4 0.3 0.7 0.5 0.2 0.0 0.3 0.1 0.1 0.1 1.0 0.3 0.2 0.1 0.3 0.2 0.6 0.5 0.4 0.8 0.9 0.5
90.2 94.9 55.0 56.9 34.2 20.6 12.1 9.8 7.2 5.0 3.8 2.9 6.1 7.2 7.8 7.5 8.7 8.2 4.7 5.5 8.0 9.3 10.7 9.8 7.9 5.7 4.7 3.4 2.4 1.7 1.9 1.7 2.0 0.7 1.8 1.7 0.5 0.1 0.1 0.1 0.1 0.0 0.0 0.2 0.5 0.7 0.5 0.4 0.9 0.8 0.8 1.9 2.7 2.4
78.2 47.3 36.7 16.1 8.1 3.3 2.5 1.4 1.6 1.6 1.7 3.0 5.2 4.9 5.9 6.4 8.0 7.9 3.9 5.3 9.0 10.9 10.2 8.1 5.6 3.4 2.5 2.2 2.2 2.1 1.5 1.2 1.3 2.2 1.8 2.8 1.9 2.7 1.1 0.8 0.6 0.2 0.2 1.9 3.4 3.0 1.6 1.5 1.2 0.9 1.0 1.9 4.2 4.1
45.6 25.8 9.8 2.5 0.5 0.4 0.9 0.9 1.2 1.9 3.9 4.5 4.6 4.7 5.3 11.7 6.8 4.6 5.0 7.0 8.1 10.0 9.2 7.6 3.9 3.1 2.6 3.1 3.5 3.5 3.0 2.7 2.3 2.6 1.9 4.3 3.3 1.9 1.9 4.9 5.5 2.6 4.4 4.8 5.1 5.5 5.8 4.6 3.4 2.7 2.7 3.2 2.7 5.0
10.2 2.1 1.0 1.2 0.9 0.7 1.4 2.3 1.8 3.0 3.3 4.0 2.9 4.9 5.0 4.7 3.9 4.8 6.7 7.9 9.3 8.9 8.3 8.3 6.8 5.2 4.8 4.5 4.3 4.8 5.0 4.6 4.5 4.1 5.6 6.2 5.4 4.2 3.2 5.9 7.4 8.4 9.2 7.2 8.9 9.3 9.6 9.1 7.1 5.6 5.8 6.2 4.8 4.2
5.1 2.9 0.6 1.2 2.3 2.5 2.2 2.8 3.1 3.3 2.6 3.5 4.1 3.5 4.2 3.2 4.2 5.3 5.6 7.8 8.7 8.3 8.7 8.5 8.1 6.9 6.4 6.0 6.3 7.1 6.6 5.9 4.6 4.1 3.7 3.5 4.5 5.7 4.3 5.3 7.6 8.9 7.8 7.5 4.5 9.0 13.4 13.3 12.2 12.1 9.2 7.7 6.1 6.7
3.4 2.1 1.8 2.0 2.3 2.9 2.7 2.9 2.4 3.2 2.5 3.0 2.2 1.3 1.3 2.9 5.0 5.4 6.1 7.8 9.1 9.3 9.9 9.4 8.2 7.9 7.8 7.2 7.2 7.9 7.4 7.0 6.0 5.4 9.1 6.4 3.3 5.0 8.0 9.5 9.1 9.0 10.9 11.0 9.2 8.0 7.6 9.0 9.0 10.0 9.7 9.1 8.6 8.5
2.6 2.1 2.8 3.2 3.7 4.2 4.7 4.3 4.0 2.7 2.1 2.1 1.9 3.0 3.5 3.3 5.4 6.1 6.4 7.7 9.2 9.7 9.4 9.4 9.2 9.1 8.4 8.1 8.4 7.3 7.9 7.5 7.6 7.1 7.9 11.5 9.6 10.1 10.4 11.0 11.6 14.3 13.8 11.4 9.9 9.5 8.3 8.3 7.9 7.9 7.7 8.0 7.0 6.6
3.8 3.2 2.7 3.3 4.9 6.0 5.9 5.2 5.2 4.5 4.0 3.6 4.1 4.0 5.1 4.6 3.9 4.7 5.3 7.1 8.0 8.4 8.5 8.4 7.6 7.6 7.4 7.7 7.5 7.2 7.3 8.1 8.7 9.9 11.6 12.3 10.8 10.2 9.5 11.6 12.6 15.2 14.3 13.2 11.4 10.7 10.6 9.8 10.9 9.9 9.7 8.5 8.0 7.4
7.9 6.0 6.0 5.4 5.3 5.8 5.5 7.1 8.8 7.1 5.8 5.1 4.7 3.8 4.2 4.2 4.5 4.3 5.3 5.7 4.7 6.5 6.5 7.2 7.8 6.9 8.6 8.1 7.6 7.3 7.4 10.1 9.1 12.0 16.1 17.6 18.4 17.0 17.8 15.7 12.5 12.3 12.5 12.0 11.3 12.1 12.6 12.2 10.9 9.8 9.5 8.4 8.4 7.5

GFSWCAN_prec_kuchsnow_333.txt.gz
Snowfall_Accumulation
0.0 0.0 0.0 0.0 0.0 0.0 0.0 0.0 0.0 0.0 0.0 0.0 0.0 0.0 0.0 0.0 0.0 0.0 0.0 0.0 0.0 19.0 2.6 0.3 0.8 3.7 4.7 7.1 15.4 8.8 13.3 6.8 5.6 7.7 8.2 3.3 2.6 2.2 0.9 2.2 3.7 4.7 9.3 4.9 5.9 10.8 4.2 0.5 0.1 1.6 3.8 1.3 0.3 1.3
0.0 0.0 0.0 0.0 0.0 0.0 0.0 0.0 0.0 0.0 0.0 0.0 0.0 0.0 0.0 0.0 0.0 0.0 0.0 0.0 0.0 8.0 7.1 1.3 0.6 0.5 0.1 2.3 7.7 10.8 7.4 4.0 6.6 11.1 7.1 10.3 8.9 3.7 1.3 4.3 0.0 4.6 3.9 8.5 9.2 4.0 1.3 0.8 1.9 2.0 2.4 4.5 2.3 2.5
0.0 0.0 0.0 0.0 0.0 0.0 0.0 0.0 0.0 0.0 0.0 0.0 0.0 0.0 0.0 0.0 0.0 0.0 0.0 0.4 2.0 15.5 8.3 4.4 2.2 0.5 0.2 0.1 1.3 12.2 7.1 4.2 8.8 7.6 16.6 17.9 16.3 3.7 6.2 2.6 1.7 0.4 0.9 6.4 3.4 1.0 1.3 2.5 2.2 0.8 1.8 1.9 0.6 0.8
0.0 0.0 0.0 0.0 0.0 0.0 0.0 0.0 0.0 0.0 0.0 0.0 0.0 0.0 0.0 0.0 0.0 0.0 0.1 1.0 2.6 13.8 31.5 3.0 0.4 0.2 0.1 0.9 1.8 3.6 5.3 6.9 9.1 12.1 24.1 24.8 14.5 2.8 4.1 2.5 3.6 4.0 4.5 5.1 6.0 1.7 2.2 1.8 0.6 0.5 1.3 0.9 0.3 0.1
0.0 0.0 0.0 0.0 0.0 0.0 0.0 0.0 0.0 0.0 0.0 0.0 0.0 0.0 0.0 0.0 0.0 0.0 2.7 2.9 1.5 5.1 20.9 3.9 1.0 0.6 0.3 0.9 2.0 3.1 4.3 8.7 11.5 16.8 20.1 13.2 3.1 7.5 6.7 6.9 8.2 5.6 11.2 14.8 9.9 3.1 8.6 2.3 1.1 0.4 1.6 1.3 1.1 1.9
0.0 0.0 0.0 0.0 0.0 0.0 0.0 0.0 0.0 0.0 0.0 0.0 0.0 0.0 0.0 0.0 0.0 1.3 9.9 2.8 1.5 1.8 30.4 33.6 2.8 1.0 0.3 0.3 1.5 2.4 3.6 6.1 8.3 12.6 11.2 5.7 4.5 11.9 22.7 10.8 3.1 1.8 2.4 6.7 7.4 2.6 1.8 1.5 0.9 0.0 1.4 1.3 2.2 3.4
0.0 0.0 0.0 0.0 0.0 0.0 0.0 0.0 0.0 0.0 0.0 0.0 0.0 0.0 0.0 0.0 0.9 6.8 9.7 1.6 0.6 2.8 35.1 42.9 13.2 1.4 1.1 1.3 1.8 1.7 2.8 4.0 5.9 10.6 9.9 5.0 5.3 16.7 27.2 10.5 1.0 1.1 0.5 0.4 1.6 4.1 1.3 0.7 2.0 0.6 1.3 1.1 0.7 0.4
0.0 0.0 0.0 0.0 0.0 0.0 0.0 0.0 0.0 0.0 0.0 0.0 0.0 0.0 0.0 0.0 2.7 7.7 4.4 1.3 2.3 9.8 17.3 43.6 17.8 2.3 0.9 1.8 3.6 2.0 2.9 4.1 5.8 6.8 5.4 5.3 5.8 10.6 19.1 0.5 0.4 0.9 0.0 0.3 0.4 0.7 2.2 0.4 0.2 0.8 0.3 0.8 0.7 0.2
0.0 0.0 0.0 0.0 0.0 0.0 0.0 0.0 0.0 0.0 0.0 0.0 0.0 0.0 2.7 5.9 8.4 5.9 1.3 2.7 8.5 12.8 47.9 25.9 12.9 8.8 1.5 2.2 3.0 4.1 3.6 15.2 6.0 10.8 9.0 6.4 8.4 12.9 6.7 4.6 2.4 1.9 3.6 3.0 0.2 0.0 0.0 0.3 0.4 0.4 0.6 1.0 1.7 0.9
0.0 0.0 0.0 0.0 0.0 0.0 0.0 0.0 0.0 0.0 0.0 0.0 1.8 12.6 34.7 8.5 1.5 2.4 6.6 9.5 15.5 26.0 22.0 20.9 5.1 10.6 2.6 5.7 12.2 12.2 12.4 14.3 18.6 10.3 7.6 12.2 6.3 1.5 1.5 1.7 3.3 3.3 3.2 3.3 4.7 4.8 3.1 2.4 1.2 1.1 2.0 2.5 4.3 3.8
0.0 0.0 0.0 0.0 0.0 0.0 0.0 0.0 0.0 0.0 0.0 5.1 24.2 29.3 20.0 3.1 10.9 21.2 43.3 42.5 35.2 40.9 19.9 11.1 9.6 11.9 7.2 14.7 15.3 13.4 19.1 14.3 21.2 7.7 10.9 10.8 4.8 1.1 0.2 0.6 0.3 1.1 2.1 3.2 5.5 6.1 6.7 8.3 7.1 4.9 2.3 2.0 2.0 2.9
0.0 0.0 0.0 0.0 0.0 0.0 0.0 0.0 0.0 6.1 12.2 8.9 11.8 13.6 16.5 24.0 38.4 50.9 39.3 19.7 22.7 22.0 14.5 10.5 6.3 6.7 10.6 9.6 18.0 19.5 23.9 17.3 18.9 3.9 14.0 7.0 1.3 0.4 0.4 0.8 1.1 1.5 2.6 3.7 4.9 7.0 6.2 5.9 5.0 4.4 4.3 4.6 4.3 4.4
0.0 0.0 0.0 0.0 0.0 0.0 0.0 0.0 0.0 0.0 2.4 14.1 25.3 43.5 36.4 32.0 43.0 29.1 14.8 9.2 12.5 8.1 6.6 7.8 11.1 8.1 9.1 10.3 20.8 20.8 28.0 20.9 6.2 14.7 3.9 2.3 0.1 0.3 1.3 1.4 1.1 0.4 1.4 2.2 3.8 4.1 4.3 2.9 2.1 3.6 3.5 3.7 4.1 4.2
0.0 0.0 0.0 0.0 0.0 0.0 0.0 0.0 0.0 0.9 17.8 41.4 51.1 56.5 35.5 25.3 10.2 5.2 5.4 6.6 4.7 6.4 7.0 5.6 10.6 10.2 8.3 15.6 13.2 25.9 9.4 12.1 16.4 8.1 2.5 1.0 1.8 2.2 1.7 1.4 2.4 1.8 2.4 3.9 6.1 5.1 3.6 4.0 3.7 3.3 5.2 5.9 6.2 8.0
0.0 0.0 0.0 0.0 0.0 0.0 0.0 0.0 1.6 10.1 25.4 53.2 42.3 35.6 16.5 6.7 5.2 6.4 4.8 5.2 7.3 6.4 7.2 7.9 7.9 7.7 11.6 20.7 15.8 14.7 21.0 12.2 4.6 3.5 2.3 3.6 4.1 4.4 4.9 4.5 4.8 4.1 5.0 7.0 9.3 7.1 6.6 4.6 4.5 6.0 8.3 7.4 6.7 7.3
0.0 0.0 0.0 0.0 0.0 0.0 0.1 4.1 16.7 19.7 36.8 42.7 35.8 19.9 6.4 4.2 6.8 7.9 6.9 9.3 7.9 7.9 7.9 13.5 17.0 19.2 21.4 20.8 20.8 10.3 9.7 5.6 5.1 6.1 6.7 6.5 6.1 5.9 6.6 8.8 11.3 11.8 12.9 12.2 15.5 17.0 13.6 11.0 11.6 11.9 8.8 9.1 8.8 8.3
0.0 0.0 0.0 0.0 0.0 0.8 1.7 16.6 29.0 51.4 51.6 43.3 17.8 7.4 8.9 9.8 10.8 12.9 10.1 10.7 7.2 12.6 15.1 19.8 28.8 17.7 11.4 14.8 6.8 2.9 4.8 4.8 6.6 7.9 8.7 7.7 8.2 8.6 8.2 8.7 12.7 14.6 17.6 14.7 15.7 16.7 18.9 15.9 9.6 4.8 7.8 9.1 7.4 7.0
1.1 0.0 0.0 0.0 2.0 7.2 26.5 21.1 47.2 52.0 47.3 19.4 8.9 6.2 6.9 8.6 9.8 6.9 7.0 7.4 11.5 14.2 14.4 22.3 14.2 18.3 15.7 9.6 5.2 4.8 5.4 5.0 6.6 8.4 10.8 10.5 9.8 11.0 10.3 12.0 12.2 11.7 12.5 11.4 9.4 7.7 6.3 4.3 4.7 6.6 6.8 5.8 4.6 4.6
0.0 0.0 0.0 0.1 3.0 13.3 50.4 55.8 34.3 44.0 17.0 7.9 7.7 6.7 5.6 6.4 5.8 6.3 6.6 9.0 12.8 10.8 12.6 14.9 20.6 14.9 8.0 5.9 6.3 6.1 6.7 7.9 9.1 9.2 10.3 9.4 8.1 7.5 6.4 5.4 5.0 4.4 5.7 5.2 4.0 5.4 4.4 3.3 4.2 3.3 3.0 1.6 1.2 1.1
0.0 0.6 2.3 4.5 6.2 36.1 52.4 43.2 23.0 15.6 9.7 7.7 7.3 6.0 4.3 7.5 6.6 4.4 6.4 8.4 10.2 11.8 19.7 20.4 10.3 10.1 12.1 11.8 11.1 11.0 11.9 11.6 8.3 5.8 6.4 5.2 3.1 1.5 0.7 0.4 0.4 0.1 0.1 0.4 0.4 0.6 0.4 0.3 0.2 0.4 0.6 0.9 1.2 0.9
7.2 9.4 8.9 7.0 16.3 42.2 38.3 27.2 18.5 11.7 7.6 6.5 6.7 4.5 6.5 5.0 5.7 5.9 6.4 6.9 14.9 18.3 15.0 11.8 11.6 12.5 11.6 12.6 14.0 12.4 11.3 6.3 4.1 3.2 2.4 1.0 0.4 0.2 0.1 0.1 0.1 0.2 0.3 0.1 0.1 0.0 0.4 1.0 0.9 0.1 0.2 0.3 0.4 0.5
16.0 4.9 24.9 12.6 64.7 62.4 47.3 23.3 13.2 8.7 6.9 8.2 5.9 5.1 7.5 7.2 5.2 6.9 10.2 15.1 18.4 12.4 11.8 11.3 10.6 11.2 10.1 10.5 8.5 5.3 2.2 1.1 0.8 0.6 0.5 0.6 0.6 0.2 0.0 0.2 0.5 0.3 0.2 0.7 0.6 1.0 0.6 0.9 1.1 0.8 0.4 0.3 0.3 0.4
3.6 12.0 43.2 47.5 61.4 56.7 43.9 14.4 14.6 10.8 8.7 7.4 6.7 7.8 10.1 8.7 5.5 6.1 13.7 13.6 12.0 11.5 10.4 8.1 7.5 5.3 4.6 3.5 1.4 1.1 0.8 0.2 0.1 0.2 0.2 0.2 0.3 0.3 0.3 0.2 0.3 0.6 0.1 0.2 0.3 0.5 0.6 0.4 0.4 0.9 0.5 0.6 0.4 0.2
4.1 49.4 59.4 58.3 45.5 44.4 28.3 23.0 13.0 7.1 8.9 8.5 9.4 9.5 9.1 7.4 7.8 9.3 10.3 5.7 8.4 10.5 10.1 10.5 7.3 4.3 3.0 3.0 2.8 2.5 1.2 0.9 0.4 0.3 0.7 0.5 0.2 0.0 0.3 0.1 0.1 0.1 1.0 0.3 0.2 0.1 0.3 0.2 0.6 0.5 0.4 0.8 0.9 0.5
90.3 94.9 55.1 56.9 34.4 20.9 12.2 9.9 7.2 5.0 3.8 2.9 6.1 7.2 7.8 7.5 8.7 8.2 4.7 5.5 8.0 9.3 10.7 9.8 7.9 5.7 4.7 3.8 2.4 1.7 1.9 1.8 2.0 0.7 1.8 1.7 0.5 0.1 0.1 0.1 0.1 0.0 0.0 0.2 0.5 0.7 0.5 0.4 0.9 0.8 0.8 1.9 2.7 2.4
78.6 47.3 36.7 16.1 8.1 3.3 2.5 1.4 1.6 1.6 1.7 3.0 5.2 4.9 5.9 6.4 8.0 7.9 3.9 5.3 9.0 10.9 10.2 8.1 5.6 3.4 2.5 2.2 2.2 2.1 1.5 1.5 1.5 2.3 1.8 2.8 1.9 2.7 1.1 0.8 0.6 0.2 0.2 1.9 3.4 3.0 1.6 1.5 1.2 0.9 1.0 1.9 4.2 4.1
46.0 25.8 9.8 2.5 0.5 0.4 0.9 0.9 1.2 1.9 3.9 4.5 4.6 4.7 5.3 11.7 6.8 4.6 5.0 7.0 8.1 10.0 9.2 7.6 3.9 3.1 2.6 3.1 3.7 3.8 3.4 3.0 2.6 2.7 2.0 4.4 3.4 2.0 2.0 5.0 5.5 2.6 4.4 4.8 5.1 5.5 5.8 4.6 3.4 2.7 2.7 3.2 2.7 5.0
10.2 2.1 1.0 1.2 1.0 0.7 1.4 2.3 1.8 3.0 3.3 4.0 2.9 4.9 5.0 4.7 3.9 4.8 6.7 7.9 9.3 8.9 8.3 8.3 6.8 5.3 5.0 4.8 4.7 5.2 5.4 4.9 4.9 4.4 5.9 6.5 5.7 4.3 3.3 5.9 7.4 8.4 9.4 7.2 8.9 9.5 9.6 9.2 7.1 5.6 5.9 6.2 4.8 4.2
5.1 2.9 0.6 1.2 2.4 2.5 2.2 2.8 3.1 3.3 2.6 3.5 4.1 3.5 4.2 3.2 4.2 5.3 5.6 7.9 8.8 8.5 8.9 8.8 8.4 7.3 6.7 6.4 6.8 7.6 7.2 6.5 5.3 4.7 4.2 4.0 4.8 5.8 4.3 5.3 7.6 8.9 7.8 7.5 4.5 9.0 13.7 13.5 12.3 12.1 9.2 7.7 6.1 6.7
3.4 2.1 1.8 2.0 2.3 2.9 2.7 2.9 2.4 3.2 2.5 3.0 2.2 1.3 1.3 2.9 5.2 5.7 6.6 8.4 9.8 10.0 10.5 9.8 8.7 8.3 8.4 7.8 7.8 8.6 8.2 7.8 6.7 6.0 9.7 6.8 3.6 5.2 8.3 9.6 9.2 9.0 10.9 11.0 9.2 8.0 7.6 9.0 9.0 10.0 9.7 9.1 8.6 8.5
2.6 2.3 2.8 3.3 3.7 4.2 4.7 4.3 4.0 2.7 2.1 2.1 1.9 3.7 4.3 4.2 6.1 6.2 6.5 8.1 10.0 10.4 9.8 9.6 9.5 9.4 8.7 8.4 8.9 8.1 8.7 8.2 8.1 7.6 8.5 12.1 10.2 10.7 10.8 11.1 11.6 14.3 13.8 11.4 9.9 9.5 8.3 8.3 7.9 7.9 7.7 8.0 7.0 6.6
3.9 3.2 2.7 3.3 4.9 6.0 5.9 5.2 5.2 4.5 4.0 3.6 4.2 4.3 5.6 5.2 4.4 4.8 5.5 7.4 8.4 8.7 8.9 8.6 7.8 7.8 7.7 8.1 8.1 7.8 7.9 8.6 9.2 10.4 12.3 13.0 11.3 10.8 9.8 11.6 12.6 15.2 14.3 13.2 11.4 10.7 10.6 9.8 10.9 9.9 9.7 8.5 8.0 7.4
8.0 6.1 6.0 5.5 5.3 5.8 5.5 7.1 8.8 7.1 5.9 5.1 4.7 3.8 4.2 4.3 4.6 4.6 5.4 5.9 4.9 6.6 6.6 7.4 8.0 7.1 8.9 8.4 8.2 7.8 7.9 10.6 9.6 12.6 16.7 18.2 19.3 17.9 18.0 15.7 12.5 12.3 12.5 12.0 11.3 12.1 12.6 12.2 10.9 9.8 9.5 8.4 8.4 7.5